Time,TemperatureF,DewpointF,PressureIn,WindDirection,WindDirectionDegrees,WindSpeedMPH,WindSpeedGustMPH,Humidity,HourlyPrecipIn,Conditions,Clouds,dailyrainin,SoftwareType,DateUTC
2013-02-27 00:00:00,16.7,2.5,30.21,NNW,330,1.0,1.0,53,0.00,,,0.00,Wunderground v.1.15,2013-02-27 07:00:00,
2013-02-27 00:01:00,16.6,2.8,30.21,NNW,330,1.0,1.0,54,0.00,,,0.00,Wunderground v.1.15,2013-02-27 07:01:00,
2013-02-27 00:06:00,16.1,2.7,30.21,NNW,345,1.0,1.0,55,0.00,,,0.00,Wunderground v.1.15,2013-02-27 07:06:00,
2013-02-27 00:10:00,15.9,2.6,30.21,NNW,345,0.0,0.0,55,0.00,,,0.00,Wunderground v.1.15,2013-02-27 07:10:00,
2013-02-27 00:12:00,15.8,2.9,30.21,West,276,0.0,1.0,56,0.00,,,0.00,Wunderground v.1.15,2013-02-27 07:12:00,
2013-02-27 00:16:00,15.8,2.9,30.21,West,281,0.0,1.0,56,0.00,,,0.00,Wunderground v.1.15,2013-02-27 07:16:00,
2013-02-27 00:17:00,15.7,2.8,30.21,West,281,0.0,1.0,56,0.00,,,0.00,Wunderground v.1.15,2013-02-27 07:17:00,
2013-02-27 00:19:00,15.7,2.8,30.21,NW,306,0.0,1.0,56,0.00,,,0.00,Wunderground v.1.15,2013-02-27 07:19:00,
2013-02-27 00:21:00,15.6,2.7,30.21,NW,306,0.0,0.0,56,0.00,,,0.00,Wunderground v.1.15,2013-02-27 07:21:00,
2013-02-27 00:23:00,15.8,2.5,30.21,NE,49,0.0,2.0,55,0.00,,,0.00,Wunderground v.1.15,2013-02-27 07:23:00,
2013-02-27 00:25:00,16.0,2.7,30.21,NE,49,0.0,2.0,55,0.00,,,0.00,Wunderground v.1.15,2013-02-27 07:25:00,
2013-02-27 00:26:00,16.0,2.7,30.21,NE,48,1.0,2.0,55,0.00,,,0.00,Wunderground v.1.15,2013-02-27 07:26:00,
2013-02-27 00:28:00,15.8,2.5,30.21,NE,48,1.0,2.0,55,0.00,,,0.00,Wunderground v.1.15,2013-02-27 07:28:00,
2013-02-27 00:31:00,15.6,2.7,30.21,NE,48,1.0,1.0,56,0.00,,,0.00,Wunderground v.1.15,2013-02-27 07:31:00,
2013-02-27 00:35:00,15.1,2.6,30.22,NNE,12,1.0,2.0,57,0.00,,,0.00,Wunderground v.1.15,2013-02-27 07:35:00,
2013-02-27 00:37:00,14.9,2.8,30.22,NNE,12,1.0,2.0,58,0.00,,,0.00,Wunderground v.1.15,2013-02-27 07:37:00,
2013-02-27 00:40:00,14.7,2.6,30.22,NNE,12,1.0,1.0,58,0.00,,,0.00,Wunderground v.1.15,2013-02-27 07:40:00,
2013-02-27 00:41:00,14.6,2.5,30.22,North,11,1.0,1.0,58,0.00,,,0.00,Wunderground v.1.15,2013-02-27 07:41:00,
2013-02-27 00:43:00,14.4,2.7,30.22,NW,326,1.0,1.0,59,0.00,,,0.00,Wunderground v.1.15,2013-02-27 07:43:00,
2013-02-27 00:48:00,14.1,2.4,30.22,NW,325,1.0,1.0,59,0.00,,,0.00,Wunderground v.1.15,2013-02-27 07:48:00,
2013-02-27 00:51:00,14.2,2.8,30.22,NW,323,1.0,4.0,60,0.00,,,0.00,Wunderground v.1.15,2013-02-27 07:51:00,
2013-02-27 00:52:00,14.2,2.5,30.22,NW,323,0.0,4.0,59,0.00,,,0.00,Wunderground v.1.15,2013-02-27 07:52:00,
2013-02-27 00:54:00,14.1,2.7,30.23,WNW,300,1.0,4.0,60,0.00,,,0.00,Wunderground v.1.15,2013-02-27 07:54:00,
2013-02-27 00:59:00,13.9,2.9,30.23,NW,308,1.0,4.0,61,0.00,,,0.00,Wunderground v.1.15,2013-02-27 07:59:00,
2013-02-27 01:00:00,13.8,2.8,30.23,NW,306,1.0,2.0,61,0.00,,,0.00,Wunderground v.1.15,2013-02-27 08:00:00,
2013-02-27 01:01:00,13.7,2.7,30.23,NW,306,1.0,2.0,61,0.00,,,0.00,Wunderground v.1.15,2013-02-27 08:01:00,
2013-02-27 01:03:00,13.6,3.0,30.23,WNW,288,2.0,2.0,62,0.00,,,0.00,Wunderground v.1.15,2013-02-27 08:03:00,
2013-02-27 01:05:00,13.7,3.1,30.23,WNW,299,2.0,2.0,62,0.00,,,0.00,Wunderground v.1.15,2013-02-27 08:05:00,
2013-02-27 01:07:00,13.7,2.7,30.23,NW,314,2.0,3.0,61,0.00,,,0.00,Wunderground v.1.15,2013-02-27 08:07:00,
2013-02-27 01:09:00,13.6,2.6,30.23,NW,307,2.0,3.0,61,0.00,,,0.00,Wunderground v.1.15,2013-02-27 08:09:00,
2013-02-27 01:10:00,13.7,2.7,30.23,WNW,282,2.0,4.0,61,0.00,,,0.00,Wunderground v.1.15,2013-02-27 08:10:00,
2013-02-27 01:13:00,15.1,3.0,30.23,West,270,2.0,4.0,58,0.00,,,0.00,Wunderground v.1.15,2013-02-27 08:13:00,
2013-02-27 01:15:00,15.3,2.8,30.24,WNW,287,2.0,5.0,57,0.00,,,0.00,Wunderground v.1.15,2013-02-27 08:15:00,
2013-02-27 01:17:00,15.4,2.5,30.23,West,272,2.0,5.0,56,0.00,,,0.00,Wunderground v.1.15,2013-02-27 08:17:00,
2013-02-27 01:21:00,16.1,2.7,30.24,WSW,254,3.0,3.0,55,0.00,,,0.00,Wunderground v.1.15,2013-02-27 08:21:00,
2013-02-27 01:22:00,16.1,2.4,30.24,SW,215,3.0,3.0,54,0.00,,,0.00,Wunderground v.1.15,2013-02-27 08:22:00,
2013-02-27 01:23:00,16.3,2.5,30.24,WSW,253,3.0,3.0,54,0.00,,,0.00,Wunderground v.1.15,2013-02-27 08:23:00,
2013-02-27 01:25:00,16.6,2.8,30.24,West,262,3.0,8.0,54,0.00,,,0.00,Wunderground v.1.15,2013-02-27 08:25:00,
2013-02-27 01:28:00,17.1,2.9,30.24,SW,231,4.0,9.0,53,0.00,,,0.00,Wunderground v.1.15,2013-02-27 08:28:00,
2013-02-27 01:29:00,17.3,2.7,30.24,West,269,4.0,9.0,52,0.00,,,0.00,Wunderground v.1.15,2013-02-27 08:29:00,
2013-02-27 01:30:00,17.4,2.8,30.24,SW,236,5.0,5.0,52,0.00,,,0.00,Wunderground v.1.15,2013-02-27 08:30:00,
2013-02-27 01:31:00,17.5,2.8,30.24,WSW,250,5.0,11.0,52,0.00,,,0.00,Wunderground v.1.15,2013-02-27 08:31:00,
2013-02-27 01:34:00,17.9,2.8,30.24,West,270,6.0,11.0,51,0.00,,,0.00,Wunderground v.1.15,2013-02-27 08:34:00,
2013-02-27 01:35:00,17.9,2.8,30.24,WNW,291,6.0,11.0,51,0.00,,,0.00,Wunderground v.1.15,2013-02-27 08:35:00,
2013-02-27 01:36:00,18.0,2.9,30.24,WNW,290,6.0,11.0,51,0.00,,,0.00,Wunderground v.1.15,2013-02-27 08:36:00,
2013-02-27 01:41:00,18.0,2.9,30.24,West,277,6.0,6.0,51,0.00,,,0.00,Wunderground v.1.15,2013-02-27 08:41:00,
2013-02-27 01:47:00,18.0,2.9,30.24,West,267,6.0,7.0,51,0.00,,,0.00,Wunderground v.1.15,2013-02-27 08:47:00,
2013-02-27 01:48:00,17.9,2.8,30.24,West,276,6.0,7.0,51,0.00,,,0.00,Wunderground v.1.15,2013-02-27 08:48:00,
2013-02-27 01:49:00,17.9,2.8,30.24,SW,236,6.0,7.0,51,0.00,,,0.00,Wunderground v.1.15,2013-02-27 08:49:00,
2013-02-27 01:55:00,17.8,2.7,30.25,West,271,5.0,11.0,51,0.00,,,0.00,Wunderground v.1.15,2013-02-27 08:55:00,
2013-02-27 01:59:00,17.8,2.7,30.25,West,263,5.0,11.0,51,0.00,,,0.00,Wunderground v.1.15,2013-02-27 08:59:00,
2013-02-27 02:00:00,17.8,2.7,30.25,SW,232,5.0,5.0,51,0.00,,,0.00,Wunderground v.1.15,2013-02-27 09:00:00,
2013-02-27 02:01:00,17.8,2.3,30.25,West,264,5.0,7.0,50,0.00,,,0.00,Wunderground v.1.15,2013-02-27 09:01:00,
2013-02-27 02:04:00,17.7,2.6,30.25,West,276,5.0,7.0,51,0.00,,,0.00,Wunderground v.1.15,2013-02-27 09:04:00,
2013-02-27 02:06:00,17.7,2.2,30.25,West,274,5.0,7.0,50,0.00,,,0.00,Wunderground v.1.15,2013-02-27 09:06:00,
2013-02-27 02:08:00,17.7,2.2,30.25,WSW,246,5.0,7.0,50,0.00,,,0.00,Wunderground v.1.15,2013-02-27 09:08:00,
2013-02-27 02:10:00,17.6,2.1,30.25,West,264,4.0,4.0,50,0.00,,,0.00,Wunderground v.1.15,2013-02-27 09:10:00,
2013-02-27 02:13:00,17.5,2.0,30.25,West,272,4.0,4.0,50,0.00,,,0.00,Wunderground v.1.15,2013-02-27 09:13:00,
2013-02-27 02:15:00,17.5,2.0,30.25,West,278,3.0,4.0,50,0.00,,,0.00,Wunderground v.1.15,2013-02-27 09:15:00,
2013-02-27 02:18:00,17.6,2.1,30.25,WSW,256,4.0,7.0,50,0.00,,,0.00,Wunderground v.1.15,2013-02-27 09:18:00,
2013-02-27 02:19:00,17.6,2.1,30.25,WSW,243,4.0,7.0,50,0.00,,,0.00,Wunderground v.1.15,2013-02-27 09:19:00,
2013-02-27 02:20:00,17.6,2.1,30.25,West,268,4.0,4.0,50,0.00,,,0.00,Wunderground v.1.15,2013-02-27 09:20:00,
2013-02-27 02:24:00,17.5,2.0,30.25,SW,215,4.0,8.0,50,0.00,,,0.00,Wunderground v.1.15,2013-02-27 09:24:00,
2013-02-27 02:25:00,17.5,1.6,30.25,West,264,4.0,8.0,49,0.00,,,0.00,Wunderground v.1.15,2013-02-27 09:25:00,
2013-02-27 02:27:00,17.5,1.6,30.25,SW,231,4.0,8.0,49,0.00,,,0.00,Wunderground v.1.15,2013-02-27 09:27:00,
2013-02-27 02:30:00,17.6,1.7,30.25,West,271,4.0,4.0,49,0.00,,,0.00,Wunderground v.1.15,2013-02-27 09:30:00,
2013-02-27 02:31:00,17.6,1.7,30.25,West,266,4.0,4.0,49,0.00,,,0.00,Wunderground v.1.15,2013-02-27 09:31:00,
2013-02-27 02:34:00,17.5,1.6,30.25,WNW,300,4.0,4.0,49,0.00,,,0.00,Wunderground v.1.15,2013-02-27 09:34:00,
2013-02-27 02:37:00,17.5,1.6,30.25,WNW,300,3.0,4.0,49,0.00,,,0.00,Wunderground v.1.15,2013-02-27 09:37:00,
2013-02-27 02:38:00,17.4,1.5,30.25,WSW,252,3.0,6.0,49,0.00,,,0.00,Wunderground v.1.15,2013-02-27 09:38:00,
2013-02-27 02:41:00,17.2,1.3,30.25,NNE,19,2.0,2.0,49,0.00,,,0.00,Wunderground v.1.15,2013-02-27 09:41:00,
2013-02-27 02:45:00,16.4,1.0,30.25,NNE,19,1.0,2.0,50,0.00,,,0.00,Wunderground v.1.15,2013-02-27 09:45:00,
2013-02-27 02:46:00,16.2,1.2,30.25,NNE,19,1.0,2.0,51,0.00,,,0.00,Wunderground v.1.15,2013-02-27 09:46:00,
2013-02-27 02:51:00,14.8,1.1,30.25,NE,44,1.0,10.0,54,0.00,,,0.00,Wunderground v.1.15,2013-02-27 09:51:00,
2013-02-27 02:54:00,14.1,0.9,30.25,ENE,78,1.0,10.0,55,0.00,,,0.00,Wunderground v.1.15,2013-02-27 09:54:00,
2013-02-27 02:57:00,13.9,0.7,30.25,ESE,121,1.0,10.0,55,0.00,,,0.00,Wunderground v.1.15,2013-02-27 09:57:00,
2013-02-27 02:58:00,13.9,0.7,30.25,ESE,122,1.0,10.0,55,0.00,,,0.00,Wunderground v.1.15,2013-02-27 09:58:00,
2013-02-27 03:01:00,13.9,0.7,30.25,ESE,121,0.0,0.0,55,0.00,,,0.00,Wunderground v.1.15,2013-02-27 10:01:00,
2013-02-27 03:04:00,13.9,0.7,30.25,West,271,0.0,1.0,55,0.00,,,0.00,Wunderground v.1.15,2013-02-27 10:04:00,
2013-02-27 03:05:00,13.9,0.7,30.25,West,271,0.0,1.0,55,0.00,,,0.00,Wunderground v.1.15,2013-02-27 10:05:00,
2013-02-27 03:07:00,13.7,0.5,30.25,NW,319,0.0,1.0,55,0.00,,,0.00,Wunderground v.1.15,2013-02-27 10:07:00,
2013-02-27 03:11:00,13.2,0.4,30.25,NW,319,0.0,0.0,56,0.00,,,0.00,Wunderground v.1.15,2013-02-27 10:11:00,
2013-02-27 03:12:00,13.0,0.6,30.26,NW,319,0.0,0.0,57,0.00,,,0.00,Wunderground v.1.15,2013-02-27 10:12:00,
2013-02-27 03:13:00,12.9,0.5,30.25,ENE,63,0.0,2.0,57,0.00,,,0.00,Wunderground v.1.15,2013-02-27 10:13:00,
2013-02-27 03:17:00,12.9,0.5,30.25,NNE,30,0.0,2.0,57,0.00,,,0.00,Wunderground v.1.15,2013-02-27 10:17:00,
2013-02-27 03:18:00,12.7,0.3,30.25,NNE,30,0.0,2.0,57,0.00,,,0.00,Wunderground v.1.15,2013-02-27 10:18:00,
2013-02-27 03:19:00,12.6,0.2,30.25,NNE,27,0.0,2.0,57,0.00,,,0.00,Wunderground v.1.15,2013-02-27 10:19:00,
2013-02-27 03:20:00,12.4,0.4,30.25,NNE,27,0.0,1.0,58,0.00,,,0.00,Wunderground v.1.15,2013-02-27 10:20:00,
2013-02-27 03:25:00,13.0,1.0,30.25,North,5,1.0,1.0,58,0.00,,,0.00,Wunderground v.1.15,2013-02-27 10:25:00,
2013-02-27 03:28:00,13.4,1.0,30.25,West,271,1.0,2.0,57,0.00,,,0.00,Wunderground v.1.15,2013-02-27 10:28:00,
2013-02-27 03:31:00,13.8,1.0,30.25,West,259,1.0,1.0,56,0.00,,,0.00,Wunderground v.1.15,2013-02-27 10:31:00,
2013-02-27 03:32:00,13.9,1.1,30.25,West,259,1.0,1.0,56,0.00,,,0.00,Wunderground v.1.15,2013-02-27 10:32:00,
2013-02-27 03:35:00,13.5,0.7,30.25,ENE,76,1.0,1.0,56,0.00,,,0.00,Wunderground v.1.15,2013-02-27 10:35:00,
2013-02-27 03:38:00,13.5,0.7,30.25,East,86,1.0,1.0,56,0.00,,,0.00,Wunderground v.1.15,2013-02-27 10:38:00,
2013-02-27 03:40:00,13.6,0.8,30.25,East,86,1.0,1.0,56,0.00,,,0.00,Wunderground v.1.15,2013-02-27 10:40:00,
2013-02-27 03:43:00,13.4,0.6,30.25,ENE,77,1.0,2.0,56,0.00,,,0.00,Wunderground v.1.15,2013-02-27 10:43:00,
2013-02-27 03:45:00,13.2,0.4,30.25,ENE,77,1.0,2.0,56,0.00,,,0.00,Wunderground v.1.15,2013-02-27 10:45:00,
2013-02-27 03:47:00,13.0,0.2,30.25,ENE,76,0.0,2.0,56,0.00,,,0.00,Wunderground v.1.15,2013-02-27 10:47:00,
2013-02-27 03:51:00,13.6,0.8,30.25,WSW,240,1.0,1.0,56,0.00,,,0.00,Wunderground v.1.15,2013-02-27 10:51:00,
2013-02-27 03:52:00,13.7,0.5,30.25,West,271,1.0,1.0,55,0.00,,,0.00,Wunderground v.1.15,2013-02-27 10:52:00,
2013-02-27 03:56:00,14.2,0.6,30.26,SE,125,1.0,3.0,54,0.00,,,0.00,Wunderground v.1.15,2013-02-27 10:56:00,
2013-02-27 03:57:00,14.2,0.6,30.26,SE,125,1.0,3.0,54,0.00,,,0.00,Wunderground v.1.15,2013-02-27 10:57:00,
2013-02-27 04:03:00,14.5,0.5,30.26,WSW,253,1.0,3.0,53,0.00,,,0.00,Wunderground v.1.15,2013-02-27 11:03:00,
2013-02-27 04:04:00,14.6,0.5,30.26,SW,236,1.0,3.0,53,0.00,,,0.00,Wunderground v.1.15,2013-02-27 11:04:00,
2013-02-27 04:05:00,14.7,0.6,30.26,WSW,254,1.0,3.0,53,0.00,,,0.00,Wunderground v.1.15,2013-02-27 11:05:00,
2013-02-27 04:07:00,14.9,0.8,30.26,WNW,282,1.0,3.0,53,0.00,,,0.00,Wunderground v.1.15,2013-02-27 11:07:00,
2013-02-27 04:10:00,15.1,0.6,30.26,WSW,253,2.0,3.0,52,0.00,,,0.00,Wunderground v.1.15,2013-02-27 11:10:00,
2013-02-27 04:14:00,15.5,0.6,30.27,WSW,240,2.0,4.0,51,0.00,,,0.00,Wunderground v.1.15,2013-02-27 11:14:00,
2013-02-27 04:16:00,15.7,0.7,30.27,West,263,3.0,7.0,51,0.00,,,0.00,Wunderground v.1.15,2013-02-27 11:16:00,
2013-02-27 04:18:00,16.0,0.6,30.27,WSW,250,3.0,7.0,50,0.00,,,0.00,Wunderground v.1.15,2013-02-27 11:18:00,
2013-02-27 04:21:00,16.4,0.5,30.27,SW,236,3.0,3.0,49,0.00,,,0.00,Wunderground v.1.15,2013-02-27 11:21:00,
2013-02-27 04:24:00,16.5,0.6,30.28,WSW,250,3.0,3.0,49,0.00,,,0.00,Wunderground v.1.15,2013-02-27 11:24:00,
2013-02-27 04:25:00,16.6,0.7,30.28,WSW,243,3.0,3.0,49,0.00,,,0.00,Wunderground v.1.15,2013-02-27 11:25:00,
2013-02-27 04:26:00,16.5,0.6,30.28,West,263,3.0,3.0,49,0.00,,,0.00,Wunderground v.1.15,2013-02-27 11:26:00,
2013-02-27 04:29:00,16.4,0.5,30.28,SSW,209,2.0,3.0,49,0.00,,,0.00,Wunderground v.1.15,2013-02-27 11:29:00,
2013-02-27 04:30:00,16.4,0.5,30.28,West,272,2.0,2.0,49,0.00,,,0.00,Wunderground v.1.15,2013-02-27 11:30:00,
2013-02-27 04:33:00,16.2,0.4,30.28,West,265,2.0,3.0,49,0.00,,,0.00,Wunderground v.1.15,2013-02-27 11:33:00,
2013-02-27 04:36:00,16.1,0.3,30.28,WSW,246,2.0,4.0,49,0.00,,,0.00,Wunderground v.1.15,2013-02-27 11:36:00,
2013-02-27 04:37:00,16.1,0.3,30.29,SW,232,2.0,4.0,49,0.00,,,0.00,Wunderground v.1.15,2013-02-27 11:37:00,
2013-02-27 04:39:00,16.0,0.6,30.29,ESE,122,2.0,4.0,50,0.00,,,0.00,Wunderground v.1.15,2013-02-27 11:39:00,
2013-02-27 04:40:00,15.8,0.4,30.29,East,96,2.0,2.0,50,0.00,,,0.00,Wunderground v.1.15,2013-02-27 11:40:00,
2013-02-27 04:43:00,15.3,0.4,30.29,WSW,240,2.0,7.0,51,0.00,,,0.00,Wunderground v.1.15,2013-02-27 11:43:00,
2013-02-27 04:45:00,15.5,0.6,30.29,SW,215,2.0,7.0,51,0.00,,,0.00,Wunderground v.1.15,2013-02-27 11:45:00,
2013-02-27 04:48:00,15.5,0.1,30.29,South,187,2.0,7.0,50,0.00,,,0.00,Wunderground v.1.15,2013-02-27 11:48:00,
2013-02-27 04:51:00,15.6,0.2,30.29,SW,236,3.0,6.0,50,0.00,,,0.00,Wunderground v.1.15,2013-02-27 11:51:00,
2013-02-27 04:54:00,15.9,0.5,30.29,SW,217,3.0,6.0,50,0.00,,,0.00,Wunderground v.1.15,2013-02-27 11:54:00,
2013-02-27 04:57:00,16.2,0.4,30.29,WSW,243,3.0,6.0,49,0.00,,,0.00,Wunderground v.1.15,2013-02-27 11:57:00,
2013-02-27 04:58:00,16.2,0.4,30.29,SW,236,3.0,6.0,49,0.00,,,0.00,Wunderground v.1.15,2013-02-27 11:58:00,
2013-02-27 05:01:00,16.3,0.5,30.30,West,269,4.0,4.0,49,0.00,,,0.00,Wunderground v.1.15,2013-02-27 12:01:00,
2013-02-27 05:02:00,16.3,0.5,30.30,SSW,211,3.0,6.0,49,0.00,,,0.00,Wunderground v.1.15,2013-02-27 12:02:00,
2013-02-27 05:03:00,16.3,0.5,30.30,SW,236,4.0,6.0,49,0.00,,,0.00,Wunderground v.1.15,2013-02-27 12:03:00,
2013-02-27 05:05:00,16.4,0.5,30.30,West,264,4.0,6.0,49,0.00,,,0.00,Wunderground v.1.15,2013-02-27 12:05:00,
2013-02-27 05:08:00,16.4,0.1,30.30,SSW,209,3.0,6.0,48,0.00,,,0.00,Wunderground v.1.15,2013-02-27 12:08:00,
2013-02-27 05:09:00,16.5,0.2,30.30,SW,218,3.0,6.0,48,0.00,,,0.00,Wunderground v.1.15,2013-02-27 12:09:00,
2013-02-27 05:10:00,16.5,0.2,30.30,SSW,208,3.0,3.0,48,0.00,,,0.00,Wunderground v.1.15,2013-02-27 12:10:00,
2013-02-27 05:13:00,16.4,0.5,30.30,West,266,3.0,4.0,49,0.00,,,0.00,Wunderground v.1.15,2013-02-27 12:13:00,
2013-02-27 05:15:00,16.5,0.2,30.30,SSE,166,3.0,4.0,48,0.00,,,0.00,Wunderground v.1.15,2013-02-27 12:15:00,
2013-02-27 05:16:00,16.6,0.3,30.30,WSW,250,3.0,4.0,48,0.00,,,0.00,Wunderground v.1.15,2013-02-27 12:16:00,
2013-02-27 05:20:00,16.4,0.1,30.31,West,273,3.0,3.0,48,0.00,,,0.00,Wunderground v.1.15,2013-02-27 12:20:00,
2013-02-27 05:22:00,16.3,0.0,30.31,WSW,242,3.0,3.0,48,0.00,,,0.00,Wunderground v.1.15,2013-02-27 12:22:00,
2013-02-27 05:25:00,15.8,0.0,30.31,SW,217,2.0,8.0,49,0.00,,,0.00,Wunderground v.1.15,2013-02-27 12:25:00,
2013-02-27 05:26:00,15.8,0.0,30.31,SW,219,2.0,8.0,49,0.00,,,0.00,Wunderground v.1.15,2013-02-27 12:26:00,
2013-02-27 05:27:00,15.9,0.1,30.31,WSW,239,2.0,8.0,49,0.00,,,0.00,Wunderground v.1.15,2013-02-27 12:27:00,
2013-02-27 05:30:00,15.9,0.5,30.31,WSW,237,2.0,5.0,50,0.00,,,0.00,Wunderground v.1.15,2013-02-27 12:30:00,
2013-02-27 05:32:00,16.0,0.2,30.31,SSW,198,3.0,5.0,49,0.00,,,0.00,Wunderground v.1.15,2013-02-27 12:32:00,
2013-02-27 05:35:00,16.0,-0.3,30.31,SW,224,4.0,5.0,48,0.00,,,0.00,Wunderground v.1.15,2013-02-27 12:35:00,
2013-02-27 05:36:00,16.0,-0.3,30.31,WSW,253,4.0,5.0,48,0.00,,,0.00,Wunderground v.1.15,2013-02-27 12:36:00,
2013-02-27 05:41:00,16.2,-0.1,30.32,West,259,4.0,4.0,48,0.00,,,0.00,Wunderground v.1.15,2013-02-27 12:41:00,
2013-02-27 05:43:00,16.1,-0.2,30.31,WNW,283,4.0,5.0,48,0.00,,,0.00,Wunderground v.1.15,2013-02-27 12:43:00,
2013-02-27 05:45:00,15.7,-0.5,30.31,West,278,4.0,10.0,48,0.00,,,0.00,Wunderground v.1.15,2013-02-27 12:45:00,
2013-02-27 05:48:00,14.8,-0.9,30.32,North,356,4.0,10.0,49,0.00,,,0.00,Wunderground v.1.15,2013-02-27 12:48:00,
2013-02-27 05:51:00,13.7,-1.1,30.32,WNW,287,4.0,9.0,51,0.00,,,0.00,Wunderground v.1.15,2013-02-27 12:51:00,
2013-02-27 05:52:00,13.2,-1.2,30.32,NW,307,4.0,9.0,52,0.00,,,0.00,Wunderground v.1.15,2013-02-27 12:52:00,
2013-02-27 05:54:00,12.5,-1.4,30.32,NW,316,4.0,9.0,53,0.00,,,0.00,Wunderground v.1.15,2013-02-27 12:54:00,
2013-02-27 05:55:00,12.3,-1.2,30.32,NW,316,4.0,9.0,54,0.00,,,0.00,Wunderground v.1.15,2013-02-27 12:55:00,
2013-02-27 05:58:00,11.7,-1.0,30.33,NW,304,2.0,9.0,56,0.00,,,0.00,Wunderground v.1.15,2013-02-27 12:58:00,
2013-02-27 06:00:00,11.7,-0.6,30.33,WNW,300,3.0,3.0,57,0.00,,,0.00,Wunderground v.1.15,2013-02-27 13:00:00,
2013-02-27 06:03:00,11.6,-0.7,30.33,NNW,338,3.0,4.0,57,0.00,,,0.00,Wunderground v.1.15,2013-02-27 13:03:00,
2013-02-27 06:07:00,11.1,-0.8,30.33,WNW,297,3.0,4.0,58,0.00,,,0.00,Wunderground v.1.15,2013-02-27 13:07:00,
2013-02-27 06:08:00,11.0,-0.9,30.33,North,355,2.0,4.0,58,0.00,,,0.00,Wunderground v.1.15,2013-02-27 13:08:00,
2013-02-27 06:10:00,10.9,-1.0,30.33,NW,304,2.0,2.0,58,0.00,,,0.00,Wunderground v.1.15,2013-02-27 13:10:00,
2013-02-27 06:12:00,11.1,-0.5,30.33,NW,315,2.0,2.0,59,0.00,,,0.00,Wunderground v.1.15,2013-02-27 13:12:00,
2013-02-27 06:14:00,11.4,-0.5,30.33,NW,311,2.0,2.0,58,0.00,,,0.00,Wunderground v.1.15,2013-02-27 13:14:00,
2013-02-27 06:17:00,12.5,-0.2,30.33,WNW,284,2.0,4.0,56,0.00,,,0.00,Wunderground v.1.15,2013-02-27 13:17:00,
2013-02-27 06:18:00,12.8,-0.3,30.33,West,269,3.0,4.0,55,0.00,,,0.00,Wunderground v.1.15,2013-02-27 13:18:00,
2013-02-27 06:21:00,14.0,-0.4,30.34,West,262,3.0,3.0,52,0.00,,,0.00,Wunderground v.1.15,2013-02-27 13:21:00,
2013-02-27 06:23:00,14.7,-0.6,30.34,SW,232,3.0,5.0,50,0.00,,,0.00,Wunderground v.1.15,2013-02-27 13:23:00,
2013-02-27 06:25:00,15.2,-0.1,30.34,SSW,197,4.0,6.0,50,0.00,,,0.00,Wunderground v.1.15,2013-02-27 13:25:00,
2013-02-27 06:27:00,15.5,0.1,30.34,South,184,4.0,6.0,50,0.00,,,0.00,Wunderground v.1.15,2013-02-27 13:27:00,
2013-02-27 06:28:00,15.6,-0.2,30.34,SSW,195,4.0,6.0,49,0.00,,,0.00,Wunderground v.1.15,2013-02-27 13:28:00,
2013-02-27 06:31:00,15.9,-0.8,30.34,West,273,4.0,4.0,47,0.00,,,0.00,Wunderground v.1.15,2013-02-27 13:31:00,
2013-02-27 06:33:00,16.0,-0.7,30.34,WSW,245,4.0,5.0,47,0.00,,,0.00,Wunderground v.1.15,2013-02-27 13:33:00,
2013-02-27 06:35:00,16.0,-0.7,30.34,SW,222,4.0,5.0,47,0.00,,,0.00,Wunderground v.1.15,2013-02-27 13:35:00,
2013-02-27 06:40:00,15.8,-0.9,30.34,WNW,301,3.0,3.0,47,0.00,,,0.00,Wunderground v.1.15,2013-02-27 13:40:00,
2013-02-27 06:41:00,15.6,-1.1,30.34,WNW,297,3.0,3.0,47,0.00,,,0.00,Wunderground v.1.15,2013-02-27 13:41:00,
2013-02-27 06:42:00,15.4,-1.3,30.35,NW,318,3.0,3.0,47,0.00,,,0.00,Wunderground v.1.15,2013-02-27 13:42:00,
2013-02-27 06:48:00,14.0,-0.4,30.35,North,356,1.0,3.0,52,0.00,,,0.00,Wunderground v.1.15,2013-02-27 13:48:00,
2013-02-27 06:51:00,13.5,-0.9,30.35,ENE,60,1.0,1.0,52,0.00,,,0.00,Wunderground v.1.15,2013-02-27 13:51:00,
2013-02-27 06:53:00,13.2,-1.2,30.35,NNE,27,1.0,1.0,52,0.00,,,0.00,Wunderground v.1.15,2013-02-27 13:53:00,
2013-02-27 06:56:00,12.8,-1.1,30.35,NNE,27,1.0,1.0,53,0.00,,,0.00,Wunderground v.1.15,2013-02-27 13:56:00,
2013-02-27 06:58:00,12.5,-1.4,30.35,NNE,27,1.0,1.0,53,0.00,,,0.00,Wunderground v.1.15,2013-02-27 13:58:00,
2013-02-27 06:59:00,12.4,-1.1,30.35,NW,316,1.0,2.0,54,0.00,,,0.00,Wunderground v.1.15,2013-02-27 13:59:00,
2013-02-27 07:00:00,12.2,-1.3,30.35,NW,316,1.0,1.0,54,0.00,,,0.00,Wunderground v.1.15,2013-02-27 14:00:00,
2013-02-27 07:06:00,12.8,-0.7,30.35,NW,307,1.0,3.0,54,0.00,,,0.00,Wunderground v.1.15,2013-02-27 14:06:00,
2013-02-27 07:08:00,12.5,-1.0,30.35,NW,308,1.0,3.0,54,0.00,,,0.00,Wunderground v.1.15,2013-02-27 14:08:00,
2013-02-27 07:09:00,12.5,-1.0,30.36,North,11,1.0,3.0,54,0.00,,,0.00,Wunderground v.1.15,2013-02-27 14:09:00,
2013-02-27 07:13:00,12.1,-1.0,30.36,North,1,1.0,1.0,55,0.00,,,0.00,Wunderground v.1.15,2013-02-27 14:13:00,
2013-02-27 07:15:00,11.9,-0.8,30.36,NW,318,1.0,3.0,56,0.00,,,0.00,Wunderground v.1.15,2013-02-27 14:15:00,
2013-02-27 07:19:00,12.1,-0.2,30.36,NW,312,2.0,4.0,57,0.00,,,0.00,Wunderground v.1.15,2013-02-27 14:19:00,
2013-02-27 07:20:00,12.2,-0.5,30.36,NNW,328,2.0,2.0,56,0.00,,,0.00,Wunderground v.1.15,2013-02-27 14:20:00,
2013-02-27 07:22:00,12.5,-0.2,30.36,NNE,16,2.0,2.0,56,0.00,,,0.00,Wunderground v.1.15,2013-02-27 14:22:00,
2013-02-27 07:25:00,13.7,2.4,30.37,ENE,70,2.0,2.0,60,0.00,,,0.00,Wunderground v.1.15,2013-02-27 14:25:00,
2013-02-27 07:28:00,15.4,10.9,30.37,East,89,1.0,2.0,82,0.00,,,0.00,Wunderground v.1.15,2013-02-27 14:28:00,
2013-02-27 07:29:00,15.5,10.4,30.37,East,88,1.0,2.0,80,0.00,,,0.00,Wunderground v.1.15,2013-02-27 14:29:00,
2013-02-27 07:31:00,15.1,3.7,30.37,North,5,0.0,0.0,60,0.00,,,0.00,Wunderground v.1.15,2013-02-27 14:31:00,
2013-02-27 07:33:00,14.9,2.0,30.37,North,6,0.0,0.0,56,0.00,,,0.00,Wunderground v.1.15,2013-02-27 14:33:00,
2013-02-27 07:36:00,15.4,2.5,30.37,ENE,67,0.0,1.0,56,0.00,,,0.00,Wunderground v.1.15,2013-02-27 14:36:00,
2013-02-27 07:37:00,15.8,1.7,30.37,East,101,0.0,1.0,53,0.00,,,0.00,Wunderground v.1.15,2013-02-27 14:37:00,
2013-02-27 07:39:00,16.4,1.4,30.37,East,101,0.0,1.0,51,0.00,,,0.00,Wunderground v.1.15,2013-02-27 14:39:00,
2013-02-27 07:42:00,17.6,2.1,30.37,East,101,0.0,0.0,50,0.00,,,0.00,Wunderground v.1.15,2013-02-27 14:42:00,
2013-02-27 07:44:00,18.2,2.2,30.37,East,101,0.0,0.0,49,0.00,,,0.00,Wunderground v.1.15,2013-02-27 14:44:00,
2013-02-27 07:46:00,19.4,3.3,30.38,SSW,208,0.0,1.0,49,0.00,,,0.00,Wunderground v.1.15,2013-02-27 14:46:00,
2013-02-27 07:47:00,20.0,3.9,30.38,SSW,198,0.0,1.0,49,0.00,,,0.00,Wunderground v.1.15,2013-02-27 14:47:00,
2013-02-27 07:48:00,20.2,15.0,30.38,SSW,197,0.0,1.0,80,0.00,,,0.00,Wunderground v.1.15,2013-02-27 14:48:00,
2013-02-27 07:53:00,20.6,5.3,30.37,SSW,192,0.0,0.0,51,0.00,,,0.00,Wunderground v.1.15,2013-02-27 14:53:00,
2013-02-27 07:54:00,20.7,5.0,30.37,South,191,0.0,0.0,50,0.00,,,0.00,Wunderground v.1.15,2013-02-27 14:54:00,
2013-02-27 07:56:00,20.9,3.8,30.38,South,191,0.0,0.0,47,0.00,,,0.00,Wunderground v.1.15,2013-02-27 14:56:00,
2013-02-27 08:01:00,21.4,2.8,30.38,ESE,117,0.0,1.0,44,0.00,,,0.00,Wunderground v.1.15,2013-02-27 15:01:00,
2013-02-27 08:02:00,21.2,2.6,30.38,SSW,212,0.0,2.0,44,0.00,,,0.00,Wunderground v.1.15,2013-02-27 15:02:00,
2013-02-27 08:05:00,21.3,5.5,30.38,SE,134,1.0,2.0,50,0.00,,,0.00,Wunderground v.1.15,2013-02-27 15:05:00,
2013-02-27 08:09:00,21.1,2.1,30.38,East,94,1.0,2.0,43,0.00,,,0.00,Wunderground v.1.15,2013-02-27 15:09:00,
2013-02-27 08:10:00,21.1,2.1,30.38,ESE,105,1.0,2.0,43,0.00,,,0.00,Wunderground v.1.15,2013-02-27 15:10:00,
2013-02-27 08:11:00,21.0,2.0,30.38,SE,142,1.0,2.0,43,0.00,,,0.00,Wunderground v.1.15,2013-02-27 15:11:00,
2013-02-27 08:12:00,21.1,2.6,30.37,ESE,107,1.0,2.0,44,0.00,,,0.00,Wunderground v.1.15,2013-02-27 15:12:00,
2013-02-27 08:17:00,22.0,3.9,30.38,ESE,106,1.0,2.0,45,0.00,,,0.00,Wunderground v.1.15,2013-02-27 15:17:00,
2013-02-27 08:18:00,22.2,3.1,30.38,ESE,103,1.0,2.0,43,0.00,,,0.00,Wunderground v.1.15,2013-02-27 15:18:00,
2013-02-27 08:22:00,22.3,2.1,30.38,East,94,1.0,3.0,41,0.00,,,0.00,Wunderground v.1.15,2013-02-27 15:22:00,
2013-02-27 08:23:00,22.3,2.1,30.38,East,94,1.0,3.0,41,0.00,,,0.00,Wunderground v.1.15,2013-02-27 15:23:00,
2013-02-27 08:24:00,22.4,2.2,30.38,East,99,1.0,3.0,41,0.00,,,0.00,Wunderground v.1.15,2013-02-27 15:24:00,
2013-02-27 08:28:00,22.3,1.1,30.37,ESE,117,1.0,3.0,39,0.00,,,0.00,Wunderground v.1.15,2013-02-27 15:28:00,
2013-02-27 08:31:00,22.0,0.8,30.37,ENE,77,2.0,3.0,39,0.00,,,0.00,Wunderground v.1.15,2013-02-27 15:31:00,
2013-02-27 08:32:00,22.0,0.8,30.38,East,82,2.0,3.0,39,0.00,,,0.00,Wunderground v.1.15,2013-02-27 15:32:00,
2013-02-27 08:35:00,22.3,1.6,30.38,ENE,59,2.0,4.0,40,0.00,,,0.00,Wunderground v.1.15,2013-02-27 15:35:00,
2013-02-27 08:37:00,22.2,0.4,30.38,ENE,66,3.0,4.0,38,0.00,,,0.00,Wunderground v.1.15,2013-02-27 15:37:00,
2013-02-27 08:38:00,22.1,0.3,30.38,ENE,76,3.0,4.0,38,0.00,,,0.00,Wunderground v.1.15,2013-02-27 15:38:00,
2013-02-27 08:41:00,22.3,0.5,30.38,ENE,67,2.0,4.0,38,0.00,,,0.00,Wunderground v.1.15,2013-02-27 15:41:00,
2013-02-27 08:44:00,22.4,0.0,30.38,East,97,3.0,4.0,37,0.00,,,0.00,Wunderground v.1.15,2013-02-27 15:44:00,
2013-02-27 08:47:00,22.6,-0.4,30.38,North,354,2.0,4.0,36,0.00,,,0.00,Wunderground v.1.15,2013-02-27 15:47:00,
2013-02-27 08:49:00,22.5,-0.5,30.38,East,89,2.0,4.0,36,0.00,,,0.00,Wunderground v.1.15,2013-02-27 15:49:00,
2013-02-27 08:51:00,22.5,-0.5,30.38,NNE,12,2.0,4.0,36,0.00,,,0.00,Wunderground v.1.15,2013-02-27 15:51:00,
2013-02-27 08:56:00,23.1,0.1,30.37,NW,304,2.0,4.0,36,0.00,,,0.00,Wunderground v.1.15,2013-02-27 15:56:00,
2013-02-27 08:57:00,23.0,-0.6,30.38,West,274,2.0,4.0,35,0.00,,,0.00,Wunderground v.1.15,2013-02-27 15:57:00,
2013-02-27 08:58:00,22.9,-0.1,30.38,West,273,2.0,4.0,36,0.00,,,0.00,Wunderground v.1.15,2013-02-27 15:58:00,
2013-02-27 09:02:00,22.6,0.2,30.38,SSW,212,2.0,2.0,37,0.00,,,0.00,Wunderground v.1.15,2013-02-27 16:02:00,
2013-02-27 09:03:00,22.7,0.3,30.38,SSW,211,2.0,2.0,37,0.00,,,0.00,Wunderground v.1.15,2013-02-27 16:03:00,
2013-02-27 09:06:00,23.4,0.9,30.38,East,99,2.0,2.0,37,0.00,,,0.00,Wunderground v.1.15,2013-02-27 16:06:00,
2013-02-27 09:08:00,24.0,0.3,30.38,East,88,1.0,2.0,35,0.00,,,0.00,Wunderground v.1.15,2013-02-27 16:08:00,
2013-02-27 09:10:00,24.8,1.0,30.37,SSE,156,0.0,0.0,35,0.00,,,0.00,Wunderground v.1.15,2013-02-27 16:10:00,
2013-02-27 09:15:00,26.8,10.6,30.38,ESE,114,0.0,2.0,50,0.00,,,0.00,Wunderground v.1.15,2013-02-27 16:15:00,
2013-02-27 09:17:00,27.4,6.8,30.37,SE,138,1.0,3.0,41,0.00,,,0.00,Wunderground v.1.15,2013-02-27 16:17:00,
2013-02-27 09:20:00,27.3,2.6,30.37,ENE,63,1.0,3.0,34,0.00,,,0.00,Wunderground v.1.15,2013-02-27 16:20:00,
2013-02-27 09:22:00,27.2,1.8,30.37,ESE,102,1.0,3.0,33,0.00,,,0.00,Wunderground v.1.15,2013-02-27 16:22:00,
2013-02-27 09:23:00,27.1,3.6,30.38,ESE,108,2.0,3.0,36,0.00,,,0.00,Wunderground v.1.15,2013-02-27 16:23:00,
2013-02-27 09:29:00,27.0,4.1,30.37,East,79,3.0,6.0,37,0.00,,,0.00,Wunderground v.1.15,2013-02-27 16:29:00,
2013-02-27 09:30:00,27.1,3.0,30.37,ENE,70,3.0,7.0,35,0.00,,,0.00,Wunderground v.1.15,2013-02-27 16:30:00,
2013-02-27 09:33:00,27.1,2.4,30.37,West,262,4.0,8.0,34,0.00,,,0.00,Wunderground v.1.15,2013-02-27 16:33:00,
2013-02-27 09:37:00,25.9,-1.3,30.37,WSW,249,4.0,8.0,30,0.00,,,0.00,Wunderground v.1.15,2013-02-27 16:37:00,
2013-02-27 09:40:00,25.7,0.5,30.37,SW,228,5.0,5.0,33,0.00,,,0.00,Wunderground v.1.15,2013-02-27 16:40:00,
2013-02-27 09:42:00,25.7,-0.1,30.37,WSW,249,5.0,6.0,32,0.00,,,0.00,Wunderground v.1.15,2013-02-27 16:42:00,
2013-02-27 09:44:00,25.7,-0.8,30.37,SW,228,5.0,10.0,31,0.00,,,0.00,Wunderground v.1.15,2013-02-27 16:44:00,
2013-02-27 09:46:00,25.4,-0.4,30.37,SW,214,5.0,10.0,32,0.00,,,0.00,Wunderground v.1.15,2013-02-27 16:46:00,
2013-02-27 09:48:00,25.3,0.2,30.37,SW,226,6.0,11.0,33,0.00,,,0.00,Wunderground v.1.15,2013-02-27 16:48:00,
2013-02-27 09:49:00,25.2,-0.6,30.37,SW,236,7.0,11.0,32,0.00,,,0.00,Wunderground v.1.15,2013-02-27 16:49:00,
2013-02-27 09:54:00,24.9,-0.2,30.37,South,189,10.0,16.0,33,0.00,,,0.00,Wunderground v.1.15,2013-02-27 16:54:00,
2013-02-27 09:55:00,24.9,-0.2,30.37,SW,229,10.0,16.0,33,0.00,,,0.00,Wunderground v.1.15,2013-02-27 16:55:00,
2013-02-27 09:57:00,25.1,0.6,30.37,West,274,10.0,16.0,34,0.00,,,0.00,Wunderground v.1.15,2013-02-27 16:57:00,
2013-02-27 10:00:00,24.8,-0.9,30.37,SW,222,11.0,11.0,32,0.00,,,0.00,Wunderground v.1.15,2013-02-27 17:00:00,
2013-02-27 10:01:00,24.7,-1.0,30.37,WSW,251,11.0,11.0,32,0.00,,,0.00,Wunderground v.1.15,2013-02-27 17:01:00,
2013-02-27 10:03:00,24.7,0.3,30.37,West,270,11.0,11.0,34,0.00,,,0.00,Wunderground v.1.15,2013-02-27 17:03:00,
2013-02-27 10:04:00,24.7,-0.4,30.37,WSW,245,11.0,11.0,33,0.00,,,0.00,Wunderground v.1.15,2013-02-27 17:04:00,
2013-02-27 10:07:00,25.0,-0.1,30.37,West,259,10.0,11.0,33,0.00,,,0.00,Wunderground v.1.15,2013-02-27 17:07:00,
2013-02-27 10:08:00,25.0,0.5,30.38,WSW,252,9.0,12.0,34,0.00,,,0.00,Wunderground v.1.15,2013-02-27 17:08:00,
2013-02-27 10:10:00,25.0,-0.1,30.37,SW,224,9.0,11.0,33,0.00,,,0.00,Wunderground v.1.15,2013-02-27 17:10:00,
2013-02-27 10:12:00,24.9,0.4,30.38,WSW,239,9.0,14.0,34,0.00,,,0.00,Wunderground v.1.15,2013-02-27 17:12:00,
2013-02-27 10:14:00,25.0,0.5,30.38,West,262,10.0,14.0,34,0.00,,,0.00,Wunderground v.1.15,2013-02-27 17:14:00,
2013-02-27 10:15:00,24.8,-0.3,30.37,SW,225,10.0,14.0,33,0.00,,,0.00,Wunderground v.1.15,2013-02-27 17:15:00,
2013-02-27 10:18:00,24.8,-0.3,30.37,WSW,252,10.0,16.0,33,0.00,,,0.00,Wunderground v.1.15,2013-02-27 17:18:00,
2013-02-27 10:23:00,25.1,0.6,30.37,SSW,207,10.0,13.0,34,0.00,,,0.00,Wunderground v.1.15,2013-02-27 17:23:00,
2013-02-27 10:25:00,25.1,0.6,30.37,SSW,193,9.0,15.0,34,0.00,,,0.00,Wunderground v.1.15,2013-02-27 17:25:00,
2013-02-27 10:26:00,25.1,0.6,30.37,SW,224,9.0,15.0,34,0.00,,,0.00,Wunderground v.1.15,2013-02-27 17:26:00,
2013-02-27 10:30:00,25.1,0.6,30.37,SSW,200,10.0,10.0,34,0.00,,,0.00,Wunderground v.1.15,2013-02-27 17:30:00,
2013-02-27 10:31:00,25.2,0.7,30.37,SW,224,10.0,10.0,34,0.00,,,0.00,Wunderground v.1.15,2013-02-27 17:31:00,
2013-02-27 10:32:00,25.3,0.8,30.37,WSW,246,10.0,10.0,34,0.00,,,0.00,Wunderground v.1.15,2013-02-27 17:32:00,
2013-02-27 10:36:00,25.3,-0.5,30.37,SW,219,10.0,13.0,32,0.00,,,0.00,Wunderground v.1.15,2013-02-27 17:36:00,
2013-02-27 10:38:00,25.3,0.2,30.37,WSW,248,9.0,13.0,33,0.00,,,0.00,Wunderground v.1.15,2013-02-27 17:38:00,
2013-02-27 10:39:00,25.3,0.8,30.37,SSW,205,10.0,13.0,34,0.00,,,0.00,Wunderground v.1.15,2013-02-27 17:39:00,
2013-02-27 10:42:00,25.5,0.3,30.37,SW,228,10.0,15.0,33,0.00,,,0.00,Wunderground v.1.15,2013-02-27 17:42:00,
2013-02-27 10:44:00,25.6,1.1,30.37,WSW,252,10.0,15.0,34,0.00,,,0.00,Wunderground v.1.15,2013-02-27 17:44:00,
2013-02-27 10:45:00,25.7,1.2,30.37,SW,226,10.0,16.0,34,0.00,,,0.00,Wunderground v.1.15,2013-02-27 17:45:00,
2013-02-27 10:46:00,25.7,1.2,30.37,SW,228,10.0,16.0,34,0.00,,,0.00,Wunderground v.1.15,2013-02-27 17:46:00,
2013-02-27 10:50:00,25.5,1.0,30.37,SW,229,11.0,15.0,34,0.00,,,0.00,Wunderground v.1.15,2013-02-27 17:50:00,
2013-02-27 10:52:00,25.3,0.2,30.37,SW,231,12.0,16.0,33,0.00,,,0.00,Wunderground v.1.15,2013-02-27 17:52:00,
2013-02-27 10:53:00,25.3,0.8,30.37,WSW,242,12.0,17.0,34,0.00,,,0.00,Wunderground v.1.15,2013-02-27 17:53:00,
2013-02-27 10:58:00,25.4,0.9,30.37,ESE,114,12.0,17.0,34,0.00,,,0.00,Wunderground v.1.15,2013-02-27 17:58:00,
2013-02-27 10:59:00,25.5,1.0,30.37,SSW,209,12.0,17.0,34,0.00,,,0.00,Wunderground v.1.15,2013-02-27 17:59:00,
2013-02-27 11:00:00,25.5,1.0,30.37,SSW,210,11.0,11.0,34,0.00,,,0.00,Wunderground v.1.15,2013-02-27 18:00:00,
2013-02-27 11:05:00,25.9,2.0,30.37,WSW,243,10.0,13.0,35,0.00,,,0.00,Wunderground v.1.15,2013-02-27 18:05:00,
2013-02-27 11:07:00,26.0,1.4,30.37,SW,221,11.0,13.0,34,0.00,,,0.00,Wunderground v.1.15,2013-02-27 18:07:00,
2013-02-27 11:09:00,26.0,1.4,30.37,WSW,240,11.0,13.0,34,0.00,,,0.00,Wunderground v.1.15,2013-02-27 18:09:00,
2013-02-27 11:15:00,25.9,0.7,30.37,SSW,207,11.0,17.0,33,0.00,,,0.00,Wunderground v.1.15,2013-02-27 18:15:00,
2013-02-27 11:17:00,26.0,1.4,30.37,SW,233,11.0,17.0,34,0.00,,,0.00,Wunderground v.1.15,2013-02-27 18:17:00,
2013-02-27 11:22:00,26.5,1.9,30.37,WSW,238,10.0,10.0,34,0.00,,,0.00,Wunderground v.1.15,2013-02-27 18:22:00,
2013-02-27 11:23:00,26.4,1.1,30.37,South,181,10.0,10.0,33,0.00,,,0.00,Wunderground v.1.15,2013-02-27 18:23:00,
2013-02-27 11:26:00,26.6,1.3,30.37,SW,217,10.0,15.0,33,0.00,,,0.00,Wunderground v.1.15,2013-02-27 18:26:00,
2013-02-27 11:27:00,26.5,1.2,30.37,WSW,239,10.0,15.0,33,0.00,,,0.00,Wunderground v.1.15,2013-02-27 18:27:00,
2013-02-27 11:29:00,26.4,1.1,30.37,SW,226,10.0,15.0,33,0.00,,,0.00,Wunderground v.1.15,2013-02-27 18:29:00,
2013-02-27 11:33:00,26.5,1.2,30.37,WSW,240,11.0,13.0,33,0.00,,,0.00,Wunderground v.1.15,2013-02-27 18:33:00,
2013-02-27 11:38:00,26.4,1.1,30.37,SW,214,12.0,13.0,33,0.00,,,0.00,Wunderground v.1.15,2013-02-27 18:38:00,
2013-02-27 11:40:00,26.3,1.0,30.37,SW,221,11.0,11.0,33,0.00,,,0.00,Wunderground v.1.15,2013-02-27 18:40:00,
2013-02-27 11:46:00,26.5,1.2,30.37,SW,231,11.0,17.0,33,0.00,,,0.00,Wunderground v.1.15,2013-02-27 18:46:00,
2013-02-27 11:48:00,26.7,2.7,30.36,SSE,163,11.0,17.0,35,0.00,,,0.00,Wunderground v.1.15,2013-02-27 18:48:00,
2013-02-27 11:54:00,26.7,3.3,30.36,South,177,11.0,16.0,36,0.00,,,0.00,Wunderground v.1.15,2013-02-27 18:54:00,
2013-02-27 11:55:00,26.8,2.8,30.37,SSW,211,11.0,16.0,35,0.00,,,0.00,Wunderground v.1.15,2013-02-27 18:55:00,
2013-02-27 12:00:00,27.1,2.4,30.36,WSW,243,10.0,16.0,34,0.00,,,0.00,Wunderground v.1.15,2013-02-27 19:00:00,
2013-02-27 12:01:00,27.2,2.5,30.36,WSW,249,10.0,16.0,34,0.00,,,0.00,Wunderground v.1.15,2013-02-27 19:01:00,
2013-02-27 12:05:00,27.3,2.6,30.36,SW,228,10.0,16.0,34,0.00,,,0.00,Wunderground v.1.15,2013-02-27 19:05:00,
2013-02-27 12:07:00,27.1,1.8,30.36,SSE,163,11.0,20.0,33,0.00,,,0.00,Wunderground v.1.15,2013-02-27 19:07:00,
2013-02-27 12:10:00,26.7,1.4,30.36,SW,231,12.0,12.0,33,0.00,,,0.00,Wunderground v.1.15,2013-02-27 19:10:00,
2013-02-27 12:11:00,26.8,2.8,30.36,WSW,255,12.0,12.0,35,0.00,,,0.00,Wunderground v.1.15,2013-02-27 19:11:00,
2013-02-27 12:16:00,26.9,2.2,30.36,West,259,12.0,13.0,34,0.00,,,0.00,Wunderground v.1.15,2013-02-27 19:16:00,
2013-02-27 12:17:00,26.9,2.2,30.36,SSW,203,12.0,13.0,34,0.00,,,0.00,Wunderground v.1.15,2013-02-27 19:17:00,
2013-02-27 12:18:00,27.0,3.5,30.36,SW,214,12.0,14.0,36,0.00,,,0.00,Wunderground v.1.15,2013-02-27 19:18:00,
2013-02-27 12:22:00,27.0,2.3,30.36,SW,226,13.0,16.0,34,0.00,,,0.00,Wunderground v.1.15,2013-02-27 19:22:00,
2013-02-27 12:23:00,27.0,1.7,30.36,WSW,257,13.0,16.0,33,0.00,,,0.00,Wunderground v.1.15,2013-02-27 19:23:00,
2013-02-27 12:25:00,27.1,3.0,30.36,SW,226,13.0,16.0,35,0.00,,,0.00,Wunderground v.1.15,2013-02-27 19:25:00,
2013-02-27 12:28:00,27.3,2.6,30.36,WSW,239,13.0,17.0,34,0.00,,,0.00,Wunderground v.1.15,2013-02-27 19:28:00,
2013-02-27 12:31:00,27.5,2.8,30.36,WSW,243,12.0,12.0,34,0.00,,,0.00,Wunderground v.1.15,2013-02-27 19:31:00,
2013-02-27 12:36:00,27.5,2.8,30.36,SSW,194,12.0,16.0,34,0.00,,,0.00,Wunderground v.1.15,2013-02-27 19:36:00,
2013-02-27 12:37:00,27.6,2.8,30.36,SW,233,11.0,16.0,34,0.00,,,0.00,Wunderground v.1.15,2013-02-27 19:37:00,
2013-02-27 12:40:00,28.1,2.6,30.36,SW,228,11.0,11.0,33,0.00,,,0.00,Wunderground v.1.15,2013-02-27 19:40:00,
2013-02-27 12:42:00,28.1,2.6,30.36,WSW,239,11.0,11.0,33,0.00,,,0.00,Wunderground v.1.15,2013-02-27 19:42:00,
2013-02-27 12:45:00,28.2,2.1,30.36,SW,222,10.0,11.0,32,0.00,,,0.00,Wunderground v.1.15,2013-02-27 19:45:00,
2013-02-27 12:46:00,28.2,2.1,30.36,West,273,10.0,16.0,32,0.00,,,0.00,Wunderground v.1.15,2013-02-27 19:46:00,
2013-02-27 12:50:00,27.7,-0.5,30.37,West,260,11.0,20.0,29,0.00,,,0.00,Wunderground v.1.15,2013-02-27 19:50:00,
2013-02-27 12:53:00,27.2,-0.2,30.37,West,270,12.0,20.0,30,0.00,,,0.00,Wunderground v.1.15,2013-02-27 19:53:00,
2013-02-27 12:57:00,26.7,-0.6,30.37,West,276,14.0,20.0,30,0.00,,,0.00,Wunderground v.1.15,2013-02-27 19:57:00,
2013-02-27 12:58:00,26.7,0.1,30.37,WNW,293,14.0,20.0,31,0.00,,,0.00,Wunderground v.1.15,2013-02-27 19:58:00,
2013-02-27 12:59:00,26.7,-0.6,30.37,WNW,286,14.0,20.0,30,0.00,,,0.00,Wunderground v.1.15,2013-02-27 19:59:00,
2013-02-27 13:00:00,26.6,0.0,30.37,WSW,249,15.0,15.0,31,0.00,,,0.00,Wunderground v.1.15,2013-02-27 20:00:00,
2013-02-27 13:06:00,26.5,-0.8,30.37,West,281,13.0,17.0,30,0.00,,,0.00,Wunderground v.1.15,2013-02-27 20:06:00,
2013-02-27 13:09:00,26.5,0.6,30.36,WNW,283,12.0,17.0,32,0.00,,,0.00,Wunderground v.1.15,2013-02-27 20:09:00,
2013-02-27 13:12:00,27.1,2.4,30.36,WSW,246,11.0,12.0,34,0.00,,,0.00,Wunderground v.1.15,2013-02-27 20:12:00,
2013-02-27 13:16:00,27.7,2.9,30.37,West,266,9.0,16.0,34,0.00,,,0.00,Wunderground v.1.15,2013-02-27 20:16:00,
2013-02-27 13:17:00,27.7,0.9,30.37,WSW,243,9.0,16.0,31,0.00,,,0.00,Wunderground v.1.15,2013-02-27 20:17:00,
2013-02-27 13:21:00,27.8,3.0,30.37,SW,236,9.0,9.0,34,0.00,,,0.00,Wunderground v.1.15,2013-02-27 20:21:00,
2013-02-27 13:24:00,27.8,2.4,30.36,West,271,8.0,12.0,33,0.00,,,0.00,Wunderground v.1.15,2013-02-27 20:24:00,
2013-02-27 13:27:00,26.6,0.0,30.37,West,276,9.0,18.0,31,0.00,,,0.00,Wunderground v.1.15,2013-02-27 20:27:00,
2013-02-27 13:31:00,25.8,1.2,30.36,West,262,10.0,10.0,34,0.00,,,0.00,Wunderground v.1.15,2013-02-27 20:31:00,
2013-02-27 13:35:00,26.0,2.0,30.36,West,269,10.0,10.0,35,0.00,,,0.00,Wunderground v.1.15,2013-02-27 20:35:00,
2013-02-27 13:39:00,26.5,4.3,30.36,West,260,7.0,13.0,38,0.00,,,0.00,Wunderground v.1.15,2013-02-27 20:39:00,
2013-02-27 13:40:00,26.5,4.3,30.36,WNW,291,7.0,7.0,38,0.00,,,0.00,Wunderground v.1.15,2013-02-27 20:40:00,
2013-02-27 13:45:00,26.3,4.1,30.37,NW,309,7.0,11.0,38,0.00,,,0.00,Wunderground v.1.15,2013-02-27 20:45:00,
2013-02-27 13:46:00,26.3,4.1,30.36,WNW,299,8.0,11.0,38,0.00,,,0.00,Wunderground v.1.15,2013-02-27 20:46:00,
2013-02-27 13:51:00,27.0,3.5,30.36,South,171,7.0,7.0,36,0.00,,,0.00,Wunderground v.1.15,2013-02-27 20:51:00,
2013-02-27 13:55:00,27.5,3.4,30.36,SSW,212,6.0,13.0,35,0.00,,,0.00,Wunderground v.1.15,2013-02-27 20:55:00,
2013-02-27 13:57:00,27.7,3.6,30.36,WSW,243,5.0,13.0,35,0.00,,,0.00,Wunderground v.1.15,2013-02-27 20:57:00,
2013-02-27 14:00:00,27.7,2.3,30.35,SW,226,7.0,12.0,33,0.00,,,0.00,Wunderground v.1.15,2013-02-27 21:00:00,
2013-02-27 14:02:00,27.6,1.5,30.35,West,281,8.0,12.0,32,0.00,,,0.00,Wunderground v.1.15,2013-02-27 21:02:00,
2013-02-27 14:05:00,27.7,2.3,30.35,WSW,255,8.0,12.0,33,0.00,,,0.00,Wunderground v.1.15,2013-02-27 21:05:00,
2013-02-27 14:06:00,27.6,0.9,30.35,WSW,256,9.0,12.0,31,0.00,,,0.00,Wunderground v.1.15,2013-02-27 21:06:00,
2013-02-27 14:09:00,27.5,2.8,30.35,WSW,248,9.0,12.0,34,0.00,,,0.00,Wunderground v.1.15,2013-02-27 21:09:00,
2013-02-27 14:11:00,27.7,2.3,30.35,West,260,10.0,11.0,33,0.00,,,0.00,Wunderground v.1.15,2013-02-27 21:11:00,
2013-02-27 14:12:00,27.7,1.6,30.35,WNW,294,9.0,11.0,32,0.00,,,0.00,Wunderground v.1.15,2013-02-27 21:12:00,
2013-02-27 14:15:00,28.0,3.2,30.35,SW,218,8.0,15.0,34,0.00,,,0.00,Wunderground v.1.15,2013-02-27 21:15:00,
2013-02-27 14:18:00,28.1,2.0,30.35,West,260,9.0,15.0,32,0.00,,,0.00,Wunderground v.1.15,2013-02-27 21:18:00,
2013-02-27 14:21:00,27.8,1.7,30.35,SSW,205,10.0,21.0,32,0.00,,,0.00,Wunderground v.1.15,2013-02-27 21:21:00,
2013-02-27 14:24:00,27.9,2.5,30.35,WSW,239,11.0,21.0,33,0.00,,,0.00,Wunderground v.1.15,2013-02-27 21:24:00,
2013-02-27 14:27:00,27.9,1.1,30.35,West,267,11.0,21.0,31,0.00,,,0.00,Wunderground v.1.15,2013-02-27 21:27:00,
2013-02-27 14:30:00,27.7,1.6,30.35,WSW,243,10.0,10.0,32,0.00,,,0.00,Wunderground v.1.15,2013-02-27 21:30:00,
2013-02-27 14:34:00,28.4,4.2,30.35,WSW,255,8.0,10.0,35,0.00,,,0.00,Wunderground v.1.15,2013-02-27 21:34:00,
2013-02-27 14:38:00,28.9,2.0,30.35,SSW,205,8.0,15.0,31,0.00,,,0.00,Wunderground v.1.15,2013-02-27 21:38:00,
2013-02-27 14:40:00,28.7,1.8,30.35,WSW,252,8.0,15.0,31,0.00,,,0.00,Wunderground v.1.15,2013-02-27 21:40:00,
2013-02-27 14:44:00,28.3,2.2,30.35,SW,225,9.0,15.0,32,0.00,,,0.00,Wunderground v.1.15,2013-02-27 21:44:00,
2013-02-27 14:45:00,28.2,2.7,30.35,WSW,238,10.0,15.0,33,0.00,,,0.00,Wunderground v.1.15,2013-02-27 21:45:00,
2013-02-27 14:49:00,28.3,4.1,30.35,SSW,203,10.0,15.0,35,0.00,,,0.00,Wunderground v.1.15,2013-02-27 21:49:00,
2013-02-27 14:51:00,28.5,4.3,30.35,WSW,246,9.0,10.0,35,0.00,,,0.00,Wunderground v.1.15,2013-02-27 21:51:00,
2013-02-27 14:53:00,28.4,3.6,30.35,SW,221,9.0,11.0,34,0.00,,,0.00,Wunderground v.1.15,2013-02-27 21:53:00,
2013-02-27 14:56:00,28.2,3.4,30.35,SSW,208,10.0,13.0,34,0.00,,,0.00,Wunderground v.1.15,2013-02-27 21:56:00,
2013-02-27 14:58:00,28.3,1.5,30.35,SW,233,10.0,13.0,31,0.00,,,0.00,Wunderground v.1.15,2013-02-27 21:58:00,
2013-02-27 14:59:00,28.3,2.2,30.35,SW,221,9.0,13.0,32,0.00,,,0.00,Wunderground v.1.15,2013-02-27 21:59:00,
2013-02-27 15:02:00,28.6,2.4,30.35,SW,229,9.0,9.0,32,0.00,,,0.00,Wunderground v.1.15,2013-02-27 22:02:00,
2013-02-27 15:08:00,28.4,2.9,30.35,SSW,204,7.0,9.0,33,0.00,,,0.00,Wunderground v.1.15,2013-02-27 22:08:00,
2013-02-27 15:09:00,28.5,3.0,30.35,South,187,7.0,12.0,33,0.00,,,0.00,Wunderground v.1.15,2013-02-27 22:09:00,
2013-02-27 15:14:00,28.5,2.3,30.35,South,170,9.0,13.0,32,0.00,,,0.00,Wunderground v.1.15,2013-02-27 22:14:00,
2013-02-27 15:16:00,28.7,3.2,30.35,WSW,239,8.0,13.0,33,0.00,,,0.00,Wunderground v.1.15,2013-02-27 22:16:00,
2013-02-27 15:20:00,28.6,2.4,30.35,South,183,8.0,8.0,32,0.00,,,0.00,Wunderground v.1.15,2013-02-27 22:20:00,
2013-02-27 15:23:00,28.7,1.1,30.35,SW,226,7.0,8.0,30,0.00,,,0.00,Wunderground v.1.15,2013-02-27 22:23:00,
2013-02-27 15:25:00,28.5,0.2,30.35,West,271,7.0,10.0,29,0.00,,,0.00,Wunderground v.1.15,2013-02-27 22:25:00,
2013-02-27 15:30:00,28.7,-4.5,30.35,SW,236,7.0,7.0,23,0.00,,,0.00,Wunderground v.1.15,2013-02-27 22:30:00,
2013-02-27 15:32:00,28.8,-5.3,30.35,WNW,283,7.0,9.0,22,0.00,,,0.00,Wunderground v.1.15,2013-02-27 22:32:00,
2013-02-27 15:36:00,28.4,-5.7,30.35,West,280,8.0,10.0,22,0.00,,,0.00,Wunderground v.1.15,2013-02-27 22:36:00,
2013-02-27 15:38:00,28.4,-6.6,30.35,West,271,7.0,10.0,21,0.00,,,0.00,Wunderground v.1.15,2013-02-27 22:38:00,
2013-02-27 15:43:00,28.5,-7.6,30.35,WSW,239,8.0,9.0,20,0.00,,,0.00,Wunderground v.1.15,2013-02-27 22:43:00,
2013-02-27 15:44:00,28.5,-7.6,30.35,WSW,257,8.0,9.0,20,0.00,,,0.00,Wunderground v.1.15,2013-02-27 22:44:00,
2013-02-27 15:49:00,28.3,-6.7,30.36,WSW,254,8.0,8.0,21,0.00,,,0.00,Wunderground v.1.15,2013-02-27 22:49:00,
2013-02-27 15:51:00,28.2,-7.8,30.36,North,349,8.0,17.0,20,0.00,,,0.00,Wunderground v.1.15,2013-02-27 22:51:00,
2013-02-27 15:56:00,28.3,-6.7,30.36,West,263,7.0,17.0,21,0.00,,,0.00,Wunderground v.1.15,2013-02-27 22:56:00,
2013-02-27 15:58:00,28.2,-6.8,30.36,WNW,285,7.0,17.0,21,0.00,,,0.00,Wunderground v.1.15,2013-02-27 22:58:00,
2013-02-27 16:01:00,28.3,-7.7,30.36,WSW,240,6.0,7.0,20,0.00,,,0.00,Wunderground v.1.15,2013-02-27 23:01:00,
2013-02-27 16:07:00,28.2,-6.8,30.36,West,267,6.0,8.0,21,0.00,,,0.00,Wunderground v.1.15,2013-02-27 23:07:00,
2013-02-27 16:12:00,27.6,-8.3,30.36,West,270,8.0,15.0,20,0.00,,,0.00,Wunderground v.1.15,2013-02-27 23:12:00,
2013-02-27 16:14:00,27.2,-7.7,30.36,WSW,257,10.0,15.0,21,0.00,,,0.00,Wunderground v.1.15,2013-02-27 23:14:00,
2013-02-27 16:17:00,27.1,-7.7,30.36,WSW,243,11.0,15.0,21,0.00,,,0.00,Wunderground v.1.15,2013-02-27 23:17:00,
2013-02-27 16:21:00,27.3,-7.6,30.36,WSW,257,10.0,10.0,21,0.00,,,0.00,Wunderground v.1.15,2013-02-27 23:21:00,
2013-02-27 16:25:00,27.2,-7.7,30.36,WSW,249,8.0,10.0,21,0.00,,,0.00,Wunderground v.1.15,2013-02-27 23:25:00,
2013-02-27 16:28:00,27.0,-7.8,30.36,WNW,282,7.0,10.0,21,0.00,,,0.00,Wunderground v.1.15,2013-02-27 23:28:00,
2013-02-27 16:29:00,27.1,-8.7,30.36,West,259,7.0,10.0,20,0.00,,,0.00,Wunderground v.1.15,2013-02-27 23:29:00,
2013-02-27 16:34:00,27.8,-8.2,30.36,West,271,5.0,8.0,20,0.00,,,0.00,Wunderground v.1.15,2013-02-27 23:34:00,
2013-02-27 16:35:00,27.7,-8.2,30.36,West,260,5.0,15.0,20,0.00,,,0.00,Wunderground v.1.15,2013-02-27 23:35:00,
2013-02-27 16:36:00,27.6,-8.3,30.36,WNW,287,5.0,15.0,20,0.00,,,0.00,Wunderground v.1.15,2013-02-27 23:36:00,
2013-02-27 16:42:00,27.3,-8.6,30.36,West,269,7.0,8.0,20,0.00,,,0.00,Wunderground v.1.15,2013-02-27 23:42:00,
2013-02-27 16:43:00,27.3,-8.6,30.37,West,267,7.0,8.0,20,0.00,,,0.00,Wunderground v.1.15,2013-02-27 23:43:00,
2013-02-27 16:48:00,27.0,-9.9,30.36,SW,219,7.0,14.0,19,0.00,,,0.00,Wunderground v.1.15,2013-02-27 23:48:00,
2013-02-27 16:54:00,27.0,-8.8,30.36,WNW,284,8.0,16.0,20,0.00,,,0.00,Wunderground v.1.15,2013-02-27 23:54:00,
2013-02-27 16:57:00,26.9,-8.9,30.36,West,271,7.0,16.0,20,0.00,,,0.00,Wunderground v.1.15,2013-02-27 23:57:00,
2013-02-27 16:59:00,26.8,-9.0,30.37,West,280,7.0,16.0,20,0.00,,,0.00,Wunderground v.1.15,2013-02-27 23:59:00,
2013-02-27 17:00:00,26.7,-8.1,30.37,West,279,7.0,7.0,21,0.00,,,0.00,Wunderground v.1.15,2013-02-28 00:00:00,
2013-02-27 17:03:00,26.6,-7.2,30.36,WNW,284,7.0,13.0,22,0.00,,,0.00,Wunderground v.1.15,2013-02-28 00:03:00,
2013-02-27 17:05:00,26.6,-7.2,30.37,West,274,8.0,13.0,22,0.00,,,0.00,Wunderground v.1.15,2013-02-28 00:05:00,
2013-02-27 17:10:00,26.2,-7.6,30.36,West,262,8.0,10.0,22,0.00,,,0.00,Wunderground v.1.15,2013-02-28 00:10:00,
2013-02-27 17:11:00,26.1,-7.6,30.36,NW,323,9.0,11.0,22,0.00,,,0.00,Wunderground v.1.15,2013-02-28 00:11:00,
2013-02-27 17:14:00,25.8,-7.9,30.36,West,269,9.0,11.0,22,0.00,,,0.00,Wunderground v.1.15,2013-02-28 00:14:00,
2013-02-27 17:15:00,25.8,-7.0,30.36,WSW,247,9.0,12.0,23,0.00,,,0.00,Wunderground v.1.15,2013-02-28 00:15:00,
2013-02-27 17:18:00,25.6,-8.1,30.36,West,280,11.0,12.0,22,0.00,,,0.00,Wunderground v.1.15,2013-02-28 00:18:00,
2013-02-27 17:21:00,25.4,-8.2,30.36,West,274,11.0,12.0,22,0.00,,,0.00,Wunderground v.1.15,2013-02-28 00:21:00,
2013-02-27 17:24:00,25.1,-8.5,30.36,West,260,11.0,15.0,22,0.00,,,0.00,Wunderground v.1.15,2013-02-28 00:24:00,
2013-02-27 17:25:00,25.0,-8.6,30.36,WNW,284,11.0,15.0,22,0.00,,,0.00,Wunderground v.1.15,2013-02-28 00:25:00,
2013-02-27 17:27:00,24.7,-7.9,30.36,WNW,295,11.0,15.0,23,0.00,,,0.00,Wunderground v.1.15,2013-02-28 00:27:00,
2013-02-27 17:29:00,24.5,-8.1,30.36,West,267,10.0,15.0,23,0.00,,,0.00,Wunderground v.1.15,2013-02-28 00:29:00,
2013-02-27 17:32:00,24.2,-7.5,30.36,West,263,10.0,13.0,24,0.00,,,0.00,Wunderground v.1.15,2013-02-28 00:32:00,
2013-02-27 17:37:00,23.8,-7.8,30.36,WSW,256,10.0,13.0,24,0.00,,,0.00,Wunderground v.1.15,2013-02-28 00:37:00,
2013-02-27 17:41:00,23.6,-7.1,30.36,WNW,283,10.0,10.0,25,0.00,,,0.00,Wunderground v.1.15,2013-02-28 00:41:00,
2013-02-27 17:43:00,23.5,-7.2,30.37,West,281,10.0,10.0,25,0.00,,,0.00,Wunderground v.1.15,2013-02-28 00:43:00,
2013-02-27 17:44:00,23.5,-6.4,30.36,WSW,258,10.0,14.0,26,0.00,,,0.00,Wunderground v.1.15,2013-02-28 00:44:00,
2013-02-27 17:47:00,23.3,-6.6,30.36,West,267,11.0,20.0,26,0.00,,,0.00,Wunderground v.1.15,2013-02-28 00:47:00,
2013-02-27 17:50:00,23.2,-5.9,30.37,WNW,296,12.0,15.0,27,0.00,,,0.00,Wunderground v.1.15,2013-02-28 00:50:00,
2013-02-27 17:55:00,22.9,-6.2,30.37,WNW,284,13.0,16.0,27,0.00,,,0.00,Wunderground v.1.15,2013-02-28 00:55:00,
2013-02-27 17:56:00,22.9,-6.2,30.37,NW,311,13.0,16.0,27,0.00,,,0.00,Wunderground v.1.15,2013-02-28 00:56:00,
2013-02-27 18:00:00,22.7,-5.6,30.38,West,278,12.0,12.0,28,0.00,,,0.00,Wunderground v.1.15,2013-02-28 01:00:00,
2013-02-27 18:01:00,22.6,-5.7,30.38,WSW,255,12.0,17.0,28,0.00,,,0.00,Wunderground v.1.15,2013-02-28 01:01:00,
2013-02-27 18:03:00,22.6,-6.4,30.38,West,269,12.0,17.0,27,0.00,,,0.00,Wunderground v.1.15,2013-02-28 01:03:00,
2013-02-27 18:09:00,22.4,-6.6,30.38,West,281,10.0,17.0,27,0.00,,,0.00,Wunderground v.1.15,2013-02-28 01:09:00,
2013-02-27 18:13:00,22.2,-6.0,30.39,West,278,9.0,15.0,28,0.00,,,0.00,Wunderground v.1.15,2013-02-28 01:13:00,
2013-02-27 18:16:00,22.1,-6.1,30.39,West,260,9.0,15.0,28,0.00,,,0.00,Wunderground v.1.15,2013-02-28 01:16:00,
2013-02-27 18:20:00,21.9,-6.3,30.39,West,277,11.0,15.0,28,0.00,,,0.00,Wunderground v.1.15,2013-02-28 01:20:00,
2013-02-27 18:22:00,21.9,-6.3,30.39,WSW,257,12.0,15.0,28,0.00,,,0.00,Wunderground v.1.15,2013-02-28 01:22:00,
2013-02-27 18:23:00,21.8,-6.4,30.39,West,266,12.0,15.0,28,0.00,,,0.00,Wunderground v.1.15,2013-02-28 01:23:00,
2013-02-27 18:28:00,21.7,-6.5,30.39,West,262,12.0,15.0,28,0.00,,,0.00,Wunderground v.1.15,2013-02-28 01:28:00,
2013-02-27 18:29:00,21.7,-6.5,30.39,West,271,12.0,17.0,28,0.00,,,0.00,Wunderground v.1.15,2013-02-28 01:29:00,
2013-02-27 18:33:00,21.6,-6.5,30.40,SW,229,11.0,12.0,28,0.00,,,0.00,Wunderground v.1.15,2013-02-28 01:33:00,
2013-02-27 18:34:00,21.5,-5.9,30.39,WNW,298,11.0,12.0,29,0.00,,,0.00,Wunderground v.1.15,2013-02-28 01:34:00,
2013-02-27 18:40:00,21.4,-6.7,30.39,West,264,11.0,11.0,28,0.00,,,0.00,Wunderground v.1.15,2013-02-28 01:40:00,
2013-02-27 18:41:00,21.4,-6.0,30.39,WNW,285,11.0,11.0,29,0.00,,,0.00,Wunderground v.1.15,2013-02-28 01:41:00,
2013-02-27 18:47:00,21.2,-6.2,30.39,West,274,9.0,13.0,29,0.00,,,0.00,Wunderground v.1.15,2013-02-28 01:47:00,
2013-02-27 18:49:00,21.2,-6.9,30.39,West,267,9.0,13.0,28,0.00,,,0.00,Wunderground v.1.15,2013-02-28 01:49:00,
2013-02-27 18:54:00,21.1,-7.0,30.39,WSW,250,9.0,16.0,28,0.00,,,0.00,Wunderground v.1.15,2013-02-28 01:54:00,
2013-02-27 18:57:00,21.1,-7.0,30.39,West,280,9.0,16.0,28,0.00,,,0.00,Wunderground v.1.15,2013-02-28 01:57:00,
2013-02-27 19:00:00,21.1,-7.0,30.40,WSW,257,10.0,10.0,28,0.00,,,0.00,Wunderground v.1.15,2013-02-28 02:00:00,
2013-02-27 19:03:00,21.0,-7.8,30.39,West,273,10.0,13.0,27,0.00,,,0.00,Wunderground v.1.15,2013-02-28 02:03:00,
2013-02-27 19:07:00,21.0,-7.8,30.39,West,264,10.0,13.0,27,0.00,,,0.00,Wunderground v.1.15,2013-02-28 02:07:00,
2013-02-27 19:10:00,21.0,-7.1,30.40,WSW,246,10.0,15.0,28,0.00,,,0.00,Wunderground v.1.15,2013-02-28 02:10:00,
2013-02-27 19:11:00,20.9,-7.9,30.39,West,263,10.0,15.0,27,0.00,,,0.00,Wunderground v.1.15,2013-02-28 02:11:00,
2013-02-27 19:13:00,20.8,-7.2,30.39,WSW,243,10.0,15.0,28,0.00,,,0.00,Wunderground v.1.15,2013-02-28 02:13:00,
2013-02-27 19:16:00,20.8,-7.2,30.39,SW,218,10.0,15.0,28,0.00,,,0.00,Wunderground v.1.15,2013-02-28 02:16:00,
2013-02-27 19:21:00,20.8,-7.2,30.39,WSW,258,10.0,10.0,28,0.00,,,0.00,Wunderground v.1.15,2013-02-28 02:21:00,
2013-02-27 19:23:00,20.7,-7.3,30.39,West,274,10.0,10.0,28,0.00,,,0.00,Wunderground v.1.15,2013-02-28 02:23:00,
2013-02-27 19:24:00,20.7,-6.6,30.39,West,279,9.0,10.0,29,0.00,,,0.00,Wunderground v.1.15,2013-02-28 02:24:00,
2013-02-27 19:27:00,20.8,-7.2,30.39,West,262,10.0,15.0,28,0.00,,,0.00,Wunderground v.1.15,2013-02-28 02:27:00,
2013-02-27 19:30:00,20.8,-7.2,30.38,WSW,246,9.0,9.0,28,0.00,,,0.00,Wunderground v.1.15,2013-02-28 02:30:00,
2013-02-27 19:33:00,20.6,-7.4,30.38,West,270,9.0,14.0,28,0.00,,,0.00,Wunderground v.1.15,2013-02-28 02:33:00,
2013-02-27 19:34:00,20.6,-7.4,30.38,WSW,249,10.0,14.0,28,0.00,,,0.00,Wunderground v.1.15,2013-02-28 02:34:00,
2013-02-27 19:37:00,20.7,-7.3,30.39,West,267,9.0,14.0,28,0.00,,,0.00,Wunderground v.1.15,2013-02-28 02:37:00,
2013-02-27 19:38:00,20.7,-7.3,30.38,SW,219,10.0,14.0,28,0.00,,,0.00,Wunderground v.1.15,2013-02-28 02:38:00,
2013-02-27 19:40:00,20.6,-7.4,30.38,WSW,249,10.0,10.0,28,0.00,,,0.00,Wunderground v.1.15,2013-02-28 02:40:00,
2013-02-27 19:46:00,20.5,-7.5,30.38,SW,232,9.0,10.0,28,0.00,,,0.00,Wunderground v.1.15,2013-02-28 02:46:00,
2013-02-27 19:49:00,20.6,-6.7,30.37,SW,228,9.0,12.0,29,0.00,,,0.00,Wunderground v.1.15,2013-02-28 02:49:00,
2013-02-27 19:51:00,20.6,-7.4,30.37,WNW,298,9.0,9.0,28,0.00,,,0.00,Wunderground v.1.15,2013-02-28 02:51:00,
2013-02-27 19:54:00,20.7,-7.3,30.37,WSW,243,10.0,10.0,28,0.00,,,0.00,Wunderground v.1.15,2013-02-28 02:54:00,
2013-02-27 19:55:00,20.8,-7.2,30.38,SE,145,10.0,10.0,28,0.00,,,0.00,Wunderground v.1.15,2013-02-28 02:55:00,
2013-02-27 20:00:00,20.9,-7.2,30.38,West,272,9.0,12.0,28,0.00,,,0.00,Wunderground v.1.15,2013-02-28 03:00:00,
2013-02-27 20:03:00,20.9,-7.2,30.38,WSW,243,9.0,12.0,28,0.00,,,0.00,Wunderground v.1.15,2013-02-28 03:03:00,
2013-02-27 20:04:00,20.9,-7.2,30.38,West,274,9.0,12.0,28,0.00,,,0.00,Wunderground v.1.15,2013-02-28 03:04:00,
2013-02-27 20:06:00,20.9,-7.2,30.38,West,260,9.0,12.0,28,0.00,,,0.00,Wunderground v.1.15,2013-02-28 03:06:00,
2013-02-27 20:09:00,20.7,-7.3,30.38,SSW,210,9.0,12.0,28,0.00,,,0.00,Wunderground v.1.15,2013-02-28 03:09:00,
2013-02-27 20:11:00,20.6,-7.4,30.38,West,262,9.0,15.0,28,0.00,,,0.00,Wunderground v.1.15,2013-02-28 03:11:00,
2013-02-27 20:12:00,20.6,-7.4,30.38,West,259,9.0,15.0,28,0.00,,,0.00,Wunderground v.1.15,2013-02-28 03:12:00,
2013-02-27 20:17:00,20.8,-7.2,30.38,West,259,10.0,15.0,28,0.00,,,0.00,Wunderground v.1.15,2013-02-28 03:17:00,
2013-02-27 20:18:00,20.8,-7.2,30.38,WNW,285,9.0,15.0,28,0.00,,,0.00,Wunderground v.1.15,2013-02-28 03:18:00,
2013-02-27 20:22:00,21.0,-7.8,30.38,WSW,249,10.0,16.0,27,0.00,,,0.00,Wunderground v.1.15,2013-02-28 03:22:00,
2013-02-27 20:23:00,21.0,-7.8,30.38,WSW,245,10.0,16.0,27,0.00,,,0.00,Wunderground v.1.15,2013-02-28 03:23:00,
2013-02-27 20:25:00,21.1,-7.7,30.38,West,278,10.0,16.0,27,0.00,,,0.00,Wunderground v.1.15,2013-02-28 03:25:00,
2013-02-27 20:26:00,21.1,-7.7,30.38,West,262,10.0,16.0,27,0.00,,,0.00,Wunderground v.1.15,2013-02-28 03:26:00,
2013-02-27 20:27:00,21.1,-7.7,30.38,West,281,10.0,16.0,27,0.00,,,0.00,Wunderground v.1.15,2013-02-28 03:27:00,
2013-02-27 20:28:00,21.1,-7.7,30.38,WSW,252,10.0,16.0,27,0.00,,,0.00,Wunderground v.1.15,2013-02-28 03:28:00,
2013-02-27 20:33:00,21.1,-7.7,30.38,West,269,10.0,13.0,27,0.00,,,0.00,Wunderground v.1.15,2013-02-28 03:33:00,
2013-02-27 20:34:00,21.1,-7.0,30.38,West,278,10.0,13.0,28,0.00,,,0.00,Wunderground v.1.15,2013-02-28 03:34:00,
2013-02-27 20:35:00,21.1,-7.0,30.38,West,274,10.0,19.0,28,0.00,,,0.00,Wunderground v.1.15,2013-02-28 03:35:00,
2013-02-27 20:40:00,21.0,-7.1,30.39,WSW,255,11.0,11.0,28,0.00,,,0.00,Wunderground v.1.15,2013-02-28 03:40:00,
2013-02-27 20:42:00,20.9,-7.2,30.39,West,274,10.0,11.0,28,0.00,,,0.00,Wunderground v.1.15,2013-02-28 03:42:00,
2013-02-27 20:43:00,20.8,-7.2,30.38,WSW,256,9.0,11.0,28,0.00,,,0.00,Wunderground v.1.15,2013-02-28 03:43:00,
2013-02-27 20:46:00,20.7,-6.6,30.39,SW,223,8.0,11.0,29,0.00,,,0.00,Wunderground v.1.15,2013-02-28 03:46:00,
2013-02-27 20:47:00,20.6,-6.7,30.39,SW,215,8.0,11.0,29,0.00,,,0.00,Wunderground v.1.15,2013-02-28 03:47:00,
2013-02-27 20:52:00,20.6,-6.7,30.39,WNW,302,9.0,20.0,29,0.00,,,0.00,Wunderground v.1.15,2013-02-28 03:52:00,
2013-02-27 20:53:00,20.6,-6.7,30.38,West,263,9.0,20.0,29,0.00,,,0.00,Wunderground v.1.15,2013-02-28 03:53:00,
2013-02-27 20:54:00,20.6,-6.7,30.38,West,268,9.0,20.0,29,0.00,,,0.00,Wunderground v.1.15,2013-02-28 03:54:00,
2013-02-27 20:55:00,20.7,-6.6,30.39,West,280,10.0,20.0,29,0.00,,,0.00,Wunderground v.1.15,2013-02-28 03:55:00,
2013-02-27 20:59:00,20.6,-6.7,30.39,WSW,245,10.0,20.0,29,0.00,,,0.00,Wunderground v.1.15,2013-02-28 03:59:00,
2013-02-27 21:00:00,20.6,-6.7,30.39,West,259,10.0,10.0,29,0.00,,,0.00,Wunderground v.1.15,2013-02-28 04:00:00,
2013-02-27 21:02:00,20.5,-6.8,30.39,West,271,9.0,10.0,29,0.00,,,0.00,Wunderground v.1.15,2013-02-28 04:02:00,
2013-02-27 21:06:00,20.5,-6.8,30.39,West,273,8.0,17.0,29,0.00,,,0.00,Wunderground v.1.15,2013-02-28 04:06:00,
2013-02-27 21:08:00,20.5,-6.8,30.38,West,281,8.0,17.0,29,0.00,,,0.00,Wunderground v.1.15,2013-02-28 04:08:00,
2013-02-27 21:11:00,20.5,-6.8,30.39,West,281,9.0,14.0,29,0.00,,,0.00,Wunderground v.1.15,2013-02-28 04:11:00,
2013-02-27 21:15:00,20.6,-6.7,30.38,West,259,11.0,14.0,29,0.00,,,0.00,Wunderground v.1.15,2013-02-28 04:15:00,
2013-02-27 21:17:00,20.5,-6.1,30.38,West,262,10.0,14.0,30,0.00,,,0.00,Wunderground v.1.15,2013-02-28 04:17:00,
2013-02-27 21:18:00,20.4,-6.2,30.39,WSW,256,10.0,14.0,30,0.00,,,0.00,Wunderground v.1.15,2013-02-28 04:18:00,
2013-02-27 21:20:00,20.4,-6.2,30.39,West,266,10.0,10.0,30,0.00,,,0.00,Wunderground v.1.15,2013-02-28 04:20:00,
2013-02-27 21:21:00,20.3,-6.3,30.39,West,263,10.0,10.0,30,0.00,,,0.00,Wunderground v.1.15,2013-02-28 04:21:00,
2013-02-27 21:24:00,20.2,-6.3,30.39,NNE,15,8.0,10.0,30,0.00,,,0.00,Wunderground v.1.15,2013-02-28 04:24:00,
2013-02-27 21:27:00,19.9,-5.9,30.39,WNW,283,6.0,10.0,31,0.00,,,0.00,Wunderground v.1.15,2013-02-28 04:27:00,
2013-02-27 21:29:00,19.8,-5.4,30.38,WNW,288,5.0,10.0,32,0.00,,,0.00,Wunderground v.1.15,2013-02-28 04:29:00,
2013-02-27 21:30:00,19.6,-4.3,30.39,NNW,338,4.0,4.0,34,0.00,,,0.00,Wunderground v.1.15,2013-02-28 04:30:00,
2013-02-27 21:34:00,18.6,-4.0,30.39,NNW,344,3.0,4.0,36,0.00,,,0.00,Wunderground v.1.15,2013-02-28 04:34:00,
2013-02-27 21:35:00,18.4,-3.6,30.39,NE,42,3.0,4.0,37,0.00,,,0.00,Wunderground v.1.15,2013-02-28 04:35:00,
2013-02-27 21:41:00,17.3,-4.0,30.39,West,281,2.0,3.0,38,0.00,,,0.00,Wunderground v.1.15,2013-02-28 04:41:00,
2013-02-27 21:46:00,18.8,-5.6,30.39,West,266,4.0,8.0,33,0.00,,,0.00,Wunderground v.1.15,2013-02-28 04:46:00,
2013-02-27 21:47:00,19.1,-5.3,30.39,West,264,4.0,8.0,33,0.00,,,0.00,Wunderground v.1.15,2013-02-28 04:47:00,
2013-02-27 21:51:00,19.9,-5.9,30.39,WSW,256,7.0,18.0,31,0.00,,,0.00,Wunderground v.1.15,2013-02-28 04:51:00,
2013-02-27 21:55:00,20.2,-5.7,30.39,WNW,283,8.0,18.0,31,0.00,,,0.00,Wunderground v.1.15,2013-02-28 04:55:00,
2013-02-27 21:57:00,20.3,-6.3,30.39,West,279,7.0,18.0,30,0.00,,,0.00,Wunderground v.1.15,2013-02-28 04:57:00,
2013-02-27 22:00:00,20.5,-6.1,30.38,SSW,210,7.0,7.0,30,0.00,,,0.00,Wunderground v.1.15,2013-02-28 05:00:00,
2013-02-27 22:01:00,20.5,-6.1,30.38,WSW,255,7.0,7.0,30,0.00,,,0.00,Wunderground v.1.15,2013-02-28 05:01:00,
2013-02-27 22:02:00,20.5,-6.1,30.38,WSW,240,7.0,7.0,30,0.00,,,0.00,Wunderground v.1.15,2013-02-28 05:02:00,
2013-02-27 22:08:00,20.4,-6.2,30.38,West,280,5.0,7.0,30,0.00,,,0.00,Wunderground v.1.15,2013-02-28 05:08:00,
2013-02-27 22:09:00,20.4,-6.2,30.38,West,272,4.0,7.0,30,0.00,,,0.00,Wunderground v.1.15,2013-02-28 05:09:00,
2013-02-27 22:10:00,20.3,-6.3,30.38,SE,141,3.0,3.0,30,0.00,,,0.00,Wunderground v.1.15,2013-02-28 05:10:00,
2013-02-27 22:13:00,20.2,-5.7,30.38,SSW,212,3.0,5.0,31,0.00,,,0.00,Wunderground v.1.15,2013-02-28 05:13:00,
2013-02-27 22:16:00,20.4,-5.5,30.38,West,274,3.0,5.0,31,0.00,,,0.00,Wunderground v.1.15,2013-02-28 05:16:00,
2013-02-27 22:18:00,20.4,-5.5,30.38,SW,215,3.0,5.0,31,0.00,,,0.00,Wunderground v.1.15,2013-02-28 05:18:00,
2013-02-27 22:19:00,20.4,-5.5,30.38,East,88,3.0,5.0,31,0.00,,,0.00,Wunderground v.1.15,2013-02-28 05:19:00,
2013-02-27 22:20:00,20.4,-5.5,30.38,West,280,3.0,5.0,31,0.00,,,0.00,Wunderground v.1.15,2013-02-28 05:20:00,
2013-02-27 22:25:00,20.3,-5.6,30.38,WNW,285,3.0,5.0,31,0.00,,,0.00,Wunderground v.1.15,2013-02-28 05:25:00,
2013-02-27 22:26:00,20.3,-5.6,30.38,ESE,108,3.0,5.0,31,0.00,,,0.00,Wunderground v.1.15,2013-02-28 05:26:00,
2013-02-27 22:29:00,20.3,-4.9,30.38,North,350,3.0,7.0,32,0.00,,,0.00,Wunderground v.1.15,2013-02-28 05:29:00,
2013-02-27 22:31:00,20.2,-5.0,30.39,WSW,245,3.0,3.0,32,0.00,,,0.00,Wunderground v.1.15,2013-02-28 05:31:00,
2013-02-27 22:33:00,20.2,-5.0,30.39,WNW,300,3.0,5.0,32,0.00,,,0.00,Wunderground v.1.15,2013-02-28 05:33:00,
2013-02-27 22:35:00,20.3,-5.6,30.38,WNW,300,3.0,5.0,31,0.00,,,0.00,Wunderground v.1.15,2013-02-28 05:35:00,
2013-02-27 22:37:00,20.4,-5.5,30.38,West,266,3.0,5.0,31,0.00,,,0.00,Wunderground v.1.15,2013-02-28 05:37:00,
2013-02-27 22:39:00,20.4,-5.5,30.38,SSW,207,2.0,5.0,31,0.00,,,0.00,Wunderground v.1.15,2013-02-28 05:39:00,
2013-02-27 22:42:00,20.3,-4.9,30.38,NW,315,2.0,7.0,32,0.00,,,0.00,Wunderground v.1.15,2013-02-28 05:42:00,
2013-02-27 22:43:00,20.3,-4.9,30.38,ESE,117,3.0,7.0,32,0.00,,,0.00,Wunderground v.1.15,2013-02-28 05:43:00,
2013-02-27 22:45:00,20.2,-5.0,30.38,WSW,243,2.0,7.0,32,0.00,,,0.00,Wunderground v.1.15,2013-02-28 05:45:00,
2013-02-27 22:48:00,20.4,-4.8,30.39,SW,219,3.0,10.0,32,0.00,,,0.00,Wunderground v.1.15,2013-02-28 05:48:00,
2013-02-27 22:51:00,20.4,-4.8,30.38,SW,229,4.0,4.0,32,0.00,,,0.00,Wunderground v.1.15,2013-02-28 05:51:00,
2013-02-27 22:53:00,20.4,-4.8,30.38,SW,236,4.0,5.0,32,0.00,,,0.00,Wunderground v.1.15,2013-02-28 05:53:00,
2013-02-27 22:58:00,20.3,-4.3,30.38,West,276,3.0,6.0,33,0.00,,,0.00,Wunderground v.1.15,2013-02-28 05:58:00,
2013-02-27 22:59:00,20.3,-4.9,30.38,WSW,249,3.0,6.0,32,0.00,,,0.00,Wunderground v.1.15,2013-02-28 05:59:00,
2013-02-27 23:00:00,20.3,-4.9,30.38,WNW,283,3.0,3.0,32,0.00,,,0.00,Wunderground v.1.15,2013-02-28 06:00:00,
2013-02-27 23:04:00,20.1,-5.1,30.38,South,188,2.0,3.0,32,0.00,,,0.00,Wunderground v.1.15,2013-02-28 06:04:00,
2013-02-27 23:05:00,20.0,-5.2,30.38,WSW,248,1.0,3.0,32,0.00,,,0.00,Wunderground v.1.15,2013-02-28 06:05:00,
2013-02-27 23:06:00,19.9,-4.6,30.38,SW,215,1.0,3.0,33,0.00,,,0.00,Wunderground v.1.15,2013-02-28 06:06:00,
2013-02-27 23:09:00,20.0,-4.5,30.38,SE,124,1.0,3.0,33,0.00,,,0.00,Wunderground v.1.15,2013-02-28 06:09:00,
2013-02-27 23:14:00,19.9,-4.6,30.38,East,86,2.0,3.0,33,0.00,,,0.00,Wunderground v.1.15,2013-02-28 06:14:00,
2013-02-27 23:17:00,19.9,-4.0,30.38,West,262,2.0,5.0,34,0.00,,,0.00,Wunderground v.1.15,2013-02-28 06:17:00,
2013-02-27 23:18:00,20.0,-3.9,30.38,South,172,2.0,6.0,34,0.00,,,0.00,Wunderground v.1.15,2013-02-28 06:18:00,
2013-02-27 23:21:00,20.3,-3.7,30.38,NW,308,4.0,6.0,34,0.00,,,0.00,Wunderground v.1.15,2013-02-28 06:21:00,
2013-02-27 23:22:00,20.3,-3.7,30.38,SSE,153,4.0,6.0,34,0.00,,,0.00,Wunderground v.1.15,2013-02-28 06:22:00,
2013-02-27 23:25:00,20.5,-3.5,30.38,West,259,4.0,10.0,34,0.00,,,0.00,Wunderground v.1.15,2013-02-28 06:25:00,
2013-02-27 23:28:00,20.7,-3.3,30.38,SW,219,5.0,10.0,34,0.00,,,0.00,Wunderground v.1.15,2013-02-28 06:28:00,
2013-02-27 23:31:00,20.9,-3.1,30.38,West,266,6.0,11.0,34,0.00,,,0.00,Wunderground v.1.15,2013-02-28 06:31:00,
2013-02-27 23:32:00,21.0,-3.0,30.38,WSW,256,6.0,11.0,34,0.00,,,0.00,Wunderground v.1.15,2013-02-28 06:32:00,
2013-02-27 23:34:00,20.9,-3.1,30.38,WSW,243,6.0,11.0,34,0.00,,,0.00,Wunderground v.1.15,2013-02-28 06:34:00,
2013-02-27 23:39:00,20.9,-3.1,30.38,South,181,5.0,11.0,34,0.00,,,0.00,Wunderground v.1.15,2013-02-28 06:39:00,
2013-02-27 23:40:00,20.8,-3.2,30.38,SSW,200,4.0,4.0,34,0.00,,,0.00,Wunderground v.1.15,2013-02-28 06:40:00,
2013-02-27 23:42:00,20.8,-2.6,30.38,SW,228,3.0,7.0,35,0.00,,,0.00,Wunderground v.1.15,2013-02-28 06:42:00,
2013-02-27 23:46:00,20.8,-2.6,30.38,NE,54,3.0,7.0,35,0.00,,,0.00,Wunderground v.1.15,2013-02-28 06:46:00,
2013-02-27 23:47:00,20.8,-2.6,30.38,WNW,284,2.0,7.0,35,0.00,,,0.00,Wunderground v.1.15,2013-02-28 06:47:00,
2013-02-27 23:49:00,20.7,-2.7,30.38,SSE,153,2.0,7.0,35,0.00,,,0.00,Wunderground v.1.15,2013-02-28 06:49:00,
2013-02-27 23:54:00,20.8,-2.6,30.38,SE,135,1.0,4.0,35,0.00,,,0.00,Wunderground v.1.15,2013-02-28 06:54:00,
2013-02-27 23:55:00,20.8,-2.6,30.38,South,179,1.0,4.0,35,0.00,,,0.00,Wunderground v.1.15,2013-02-28 06:55:00,
2013-02-27 23:56:00,20.8,-2.6,30.38,West,266,1.0,4.0,35,0.00,,,0.00,Wunderground v.1.15,2013-02-28 06:56:00,